GFSSE_700_spd_057.txt.gz
Wind_Speed
17 22 20 21 25 24 17 13 20 28 26 25 19 14 11 12 14 14 15 15 12 10 8 9 11 12 12 11 11 10 10 9 11 12 12 12 14 14 14 14 14 13 13
17 16 21 27 28 22 21 27 31 29 24 21 18 15 12 14 16 16 16 15 12 10 10 11 12 13 12 11 10 10 10 10 11 11 12 12 13 14 14 13 13 12 12
20 15 20 27 23 20 31 30 28 25 24 19 19 19 17 17 17 17 15 13 12 12 12 12 13 12 11 11 10 10 11 11 12 12 12 12 12 12 11 11 10 10 10
12 12 15 23 21 18 23 34 29 26 22 22 23 20 19 16 15 17 16 14 14 13 12 13 15 12 11 10 11 11 11 10 12 12 11 11 10 11 12 11 11 10 10
14 14 17 22 26 14 29 27 33 27 24 23 23 21 20 18 17 17 17 17 16 14 13 15 15 14 12 10 10 10 10 10 11 11 11 11 11 12 12 12 11 10 10
16 17 15 20 15 12 14 35 43 34 25 24 23 22 20 19 19 18 18 16 15 14 13 14 14 13 12 11 11 9 9 11 12 11 12 12 11 11 10 9 9 9 9
19 15 15 13 19 21 19 31 33 38 26 26 25 24 22 22 20 19 18 17 16 14 13 14 13 12 12 12 11 11 11 12 12 11 10 10 8 9 9 9 11 12 12
23 20 16 15 23 24 28 38 43 40 36 27 26 27 25 24 23 22 19 18 16 14 13 13 13 12 12 10 11 11 11 11 10 9 7 7 8 10 11 12 13 12 12
19 20 18 22 27 30 39 38 31 39 32 31 30 29 27 26 25 23 21 19 17 14 13 13 11 12 14 12 12 12 10 9 8 6 7 8 9 11 11 12 12 12 12
24 24 28 32 36 31 23 10 14 39 30 29 30 30 29 28 26 24 21 19 16 13 10 10 12 13 15 14 11 10 9 8 7 5 7 8 9 10 10 10 10 11 12
18 23 27 30 30 33 19 26 22 30 38 30 30 31 30 30 27 25 23 20 18 15 11 9 9 9 13 14 12 10 7 7 6 5 6 6 6 7 9 10 8 9 12
25 38 26 24 22 22 24 19 31 39 43 35 34 34 33 31 28 27 25 23 20 18 14 10 8 6 7 8 8 8 6 6 6 6 5 4 6 9 11 10 6 8 11
6 9 19 16 18 6 3 18 17 29 36 39 36 34 34 32 30 29 27 24 22 16 12 9 7 6 6 6 7 6 5 5 4 4 4 3 6 9 11 12 13 14 13
11 12 17 13 5 11 8 9 22 27 35 41 39 36 34 33 32 28 27 25 22 11 10 11 8 6 6 6 6 6 5 4 3 3 2 6 8 10 12 14 14 14 14
11 9 12 16 17 15 15 17 20 23 38 38 37 36 36 35 33 30 25 22 18 14 10 7 7 6 7 8 8 6 4 2 1 2 5 7 9 12 16 16 17 16 15
15 12 15 13 15 16 15 18 22 29 40 39 36 38 38 36 34 25 23 18 20 15 12 9 7 7 6 8 10 7 4 2 3 4 5 8 10 14 17 18 17 17 16
16 20 11 18 16 18 13 24 18 33 36 39 39 38 39 38 30 31 24 22 20 16 11 8 6 5 5 7 6 4 4 5 6 7 8 10 12 15 18 18 18 18 18
17 18 16 24 18 12 17 28 25 38 39 40 41 41 40 37 34 31 25 21 23 16 12 9 6 5 5 5 5 6 7 9 10 11 11 14 14 16 18 19 20 21 23
20 20 17 19 16 16 18 17 27 35 41 43 46 46 44 40 41 30 22 29 25 18 15 10 7 6 5 5 7 8 10 12 14 14 15 17 17 18 18 20 21 23 22
22 22 24 21 17 21 22 30 37 40 45 49 57 52 40 38 37 34 29 31 24 19 17 14 10 8 6 7 9 11 12 14 18 19 19 20 20 21 21 22 22 23 21
13 27 25 26 26 28 18 24 27 25 38 47 55 38 36 39 39 30 36 32 24 20 17 16 14 11 8 10 12 13 16 18 21 23 24 24 24 24 23 25 25 23 21
13 8 13 29 28 23 21 23 26 29 27 35 39 34 40 36 33 37 36 28 22 20 19 19 18 16 15 15 16 19 21 22 24 22 25 27 28 27 28 26 28 28 25
8 11 9 5 16 25 29 25 27 26 32 39 35 32 39 40 34 39 36 26 25 26 25 23 22 20 20 20 21 21 26 29 28 29 27 31 31 29 28 28 27 31 30
6 8 11 11 12 18 25 29 25 26 29 33 29 32 37 37 36 36 30 29 28 27 26 24 25 25 24 23 25 24 29 26 30 34 28 30 35 37 30 28 26 30 34
6 7 9 12 14 16 19 23 25 25 27 30 32 32 34 33 31 33 31 29 27 27 26 24 25 28 30 27 28 25 31 30 29 37 33 27 29 37 30 28 29 31 38
10 9 8 8 9 11 13 15 16 19 22 24 25 23 24 25 26 25 27 27 26 29 27 31 29 33 33 35 20 25 29 29 27 34 30 28 29 29 34 28 32 38 34

GFSSE_700_spd_060.txt.gz
Wind_Speed
16 24 20 17 17 19 21 20 12 10 18 24 24 23 21 16 11 12 13 13 12 10 9 10 12 12 12 12 12 12 12 13 14 14 14 14 15 15 16 16 15 14 14
16 18 14 25 23 22 23 20 16 16 17 21 24 25 23 19 15 15 14 12 10 9 9 11 11 11 11 11 11 11 12 13 14 14 14 14 15 15 15 15 14 14 13
19 19 20 21 25 30 21 16 19 19 23 23 26 26 23 20 16 14 14 13 11 12 12 12 11 11 12 11 10 10 11 12 13 14 14 13 12 13 14 14 13 13 12
14 16 20 18 23 23 13 14 16 23 26 18 28 24 22 20 17 16 15 14 13 13 13 13 13 13 12 11 11 12 12 12 13 13 13 12 12 14 14 14 13 13 11
14 17 16 19 25 15 15 20 21 22 23 21 20 23 23 20 19 17 16 14 13 13 14 13 12 12 12 12 11 12 11 11 11 13 12 13 13 14 13 12 11 11 11
12 18 18 20 29 32 29 28 29 20 31 28 27 26 23 22 21 19 17 16 17 17 15 14 12 12 12 11 10 9 9 10 11 13 13 13 11 10 10 10 10 10 10
16 18 17 21 26 30 30 35 44 39 39 32 32 26 25 25 23 19 18 18 18 17 16 14 14 12 11 11 11 10 10 12 12 12 11 10 9 9 9 10 11 11 11
23 22 25 28 31 33 33 27 27 42 41 31 31 30 28 26 24 22 22 20 18 17 14 13 12 13 13 12 12 12 12 13 11 10 9 9 8 10 12 12 12 11 11
20 26 30 30 33 34 35 29 24 39 37 38 35 29 29 28 26 24 23 20 18 17 15 14 14 13 12 13 13 13 12 11 9 8 8 8 10 11 11 10 10 12 13
18 25 32 35 34 38 37 30 32 48 32 34 36 29 29 29 28 26 23 21 18 18 17 15 15 14 12 14 13 13 11 10 9 8 8 9 10 10 9 8 9 10 11
18 24 28 35 40 38 35 25 31 25 40 40 33 34 32 32 30 26 23 20 18 17 15 15 16 15 13 13 12 11 10 9 8 8 9 9 9 9 9 9 7 9 9
15 28 29 36 45 37 32 28 16 19 36 43 42 36 35 34 30 26 23 20 18 17 17 16 16 16 13 11 11 10 10 9 8 8 7 7 7 10 11 10 9 10 10
14 7 34 31 31 31 27 24 25 17 41 37 38 39 38 35 31 27 23 19 18 19 17 12 11 14 13 10 9 8 8 8 8 7 6 6 7 10 11 10 9 10 9
9 6 7 16 22 13 11 21 23 26 38 41 41 40 38 34 32 27 23 20 18 17 12 9 4 7 10 9 8 7 7 7 7 6 4 4 4 7 9 8 7 9 12
8 6 17 11 9 12 17 15 19 28 37 41 44 38 36 34 31 27 24 22 16 11 7 8 9 9 9 9 8 7 6 5 5 4 1 2 4 6 9 9 8 9 12
10 9 13 9 14 14 14 17 21 21 36 34 41 46 37 34 31 30 26 21 14 10 9 10 9 8 9 9 9 8 7 5 4 3 1 3 5 7 11 12 10 10 11
12 8 13 14 13 11 17 17 22 26 29 34 33 36 36 35 32 26 20 22 16 14 13 10 8 6 5 7 10 10 9 7 6 5 5 6 8 11 13 15 14 13 14
20 17 13 20 11 10 13 15 27 18 36 35 34 40 37 34 30 27 27 24 19 16 14 10 8 8 7 7 9 9 7 8 8 8 9 10 11 13 16 18 18 17 17
15 14 17 14 19 13 19 14 32 29 36 36 37 39 38 36 32 28 28 26 17 20 16 12 10 9 8 8 8 8 8 10 10 10 12 14 15 17 19 20 20 20 20
23 24 19 19 19 19 20 27 25 21 39 38 36 33 38 37 36 32 28 31 21 24 17 16 12 11 10 10 9 10 9 11 12 13 16 17 19 20 21 22 23 23 24
17 24 20 21 24 22 21 24 27 26 43 43 42 44 44 39 38 34 29 29 25 22 19 22 17 14 12 13 12 10 10 13 13 15 17 18 20 22 22 24 24 27 27
2 19 26 26 24 26 21 19 28 30 44 47 46 48 47 48 45 40 35 35 27 21 18 18 21 18 17 17 17 16 16 17 16 20 20 21 23 24 24 31 25 26 27
6 4 14 22 25 24 28 23 21 29 27 36 50 53 52 42 33 34 36 25 28 27 28 24 21 20 21 22 23 23 22 24 21 22 25 27 25 27 25 27 29 31 26
4 5 6 6 21 28 28 22 24 24 29 32 26 42 44 42 36 34 30 29 31 32 28 28 25 26 27 26 27 27 27 27 29 27 29 30 27 26 26 26 31 30 27
3 4 5 8 7 9 17 23 23 24 26 40 26 32 32 27 34 34 28 33 35 33 30 29 29 29 29 30 31 30 32 31 31 28 32 28 30 30 28 28 29 32 28
4 4 5 7 9 11 13 12 11 11 15 20 21 25 28 28 31 32 33 35 35 33 32 30 30 31 31 32 31 35 39 36 24 25 31 32 28 29 31 30 29 34 33

GFSSE_700_spd_063.txt.gz
Wind_Speed
16 17 22 23 23 11 13 17 22 19 15 16 22 23 15 12 10 8 9 10 11 9 9 10 12 12 13 12 13 13 13 14 14 15 15 16 16 16 16 16 14 14 14
15 18 24 22 16 13 22 26 22 23 20 24 26 26 16 15 12 10 11 11 12 10 11 12 14 12 12 13 12 13 13 14 15 15 15 15 15 14 14 13 13 14 13
14 21 24 21 17 19 20 22 22 20 17 20 18 18 18 18 16 14 13 13 12 11 14 15 12 12 12 11 12 12 13 14 15 16 15 14 14 14 14 14 13 14 13
13 23 24 26 18 21 23 21 19 19 24 27 25 26 23 19 18 16 15 15 14 14 14 12 11 11 11 12 11 11 13 14 14 14 14 14 14 14 14 14 12 12 11
14 20 22 22 22 23 25 16 16 21 21 23 18 21 23 21 20 18 18 17 15 15 13 11 12 12 11 10 11 11 11 12 13 14 14 14 13 14 12 11 11 10 10
16 17 29 28 24 26 30 18 17 21 22 28 19 19 22 21 22 20 20 17 17 16 15 12 11 11 12 11 11 11 10 11 13 14 14 13 11 11 10 10 10 10 10
18 19 26 23 16 33 29 25 26 26 24 30 26 26 19 22 23 22 20 18 17 15 13 14 14 12 13 12 11 11 11 13 14 14 12 10 10 10 11 11 11 11 11
22 22 22 26 23 38 35 29 35 34 27 27 29 26 30 23 25 23 22 20 19 17 15 14 14 14 13 12 12 12 13 14 13 11 10 9 11 11 12 11 11 12 12
22 23 29 30 29 32 37 37 33 30 37 38 36 28 30 27 26 24 23 23 20 17 16 16 15 13 13 13 13 13 13 13 11 10 10 11 12 11 9 10 11 11 10
24 29 31 32 34 36 41 42 37 38 39 38 36 33 32 30 27 26 26 24 20 19 18 16 15 15 15 15 15 14 13 12 11 10 11 11 10 9 8 10 9 9 9
24 28 36 38 40 39 42 45 42 37 39 48 44 32 34 31 30 29 27 24 22 20 18 17 15 14 14 14 14 13 12 11 11 11 11 10 9 10 10 8 6 8 8
21 24 31 40 47 49 46 43 36 41 45 46 51 39 32 32 31 30 28 25 22 20 19 18 17 14 14 13 12 11 11 11 11 11 11 10 10 10 9 7 7 8 7
20 24 31 43 45 44 45 44 31 37 23 33 38 40 38 35 33 31 29 27 23 21 19 17 15 14 12 12 11 10 10 11 11 11 10 9 9 9 7 6 5 6 6
17 16 16 24 32 25 42 29 29 33 27 31 46 41 36 37 33 30 26 25 22 21 17 18 16 12 12 11 11 11 11 10 10 10 8 6 6 5 5 5 3 3 4
13 9 9 6 17 18 32 33 29 25 36 42 41 41 38 35 33 29 27 25 25 21 17 13 8 12 12 10 11 10 9 9 9 8 6 5 3 2 3 5 5 6 7
12 9 6 14 21 18 22 23 27 31 40 41 43 42 38 34 29 28 25 28 25 20 14 8 8 8 10 13 12 12 10 10 9 6 4 2 0 2 4 6 9 9 10
4 6 24 8 14 16 11 21 21 25 38 38 43 40 36 33 28 27 29 27 18 14 11 11 9 8 10 12 13 13 11 9 9 7 5 4 4 6 9 11 14 15 14
11 15 20 12 12 13 13 16 23 24 36 36 41 43 41 37 31 30 29 21 18 16 14 12 9 10 11 12 13 13 11 11 9 7 6 7 8 11 12 14 16 17 17
11 17 17 17 13 11 15 17 25 26 32 34 34 45 46 37 34 31 24 23 20 16 15 13 9 10 10 10 10 12 13 12 10 8 8 8 11 13 16 17 19 19 20
20 18 20 17 15 14 15 16 24 31 32 34 33 31 43 40 37 32 29 27 21 19 18 14 13 11 11 11 12 13 13 12 9 8 9 12 13 16 17 18 20 22 23
19 20 21 16 19 21 13 22 18 32 35 37 34 37 42 42 36 37 35 29 26 21 20 17 16 15 13 13 13 13 13 12 10 10 11 13 14 17 20 20 19 22 28
6 17 23 21 22 20 19 22 20 32 35 43 40 39 44 44 43 39 33 31 27 28 25 21 19 19 15 18 18 17 17 17 16 16 16 15 17 23 21 23 25 24 26
7 7 21 21 25 21 24 27 24 30 36 38 43 47 44 44 44 43 37 35 30 26 26 22 20 20 19 23 22 23 24 24 22 21 21 21 23 22 23 25 27 28 24
5 5 3 13 21 26 27 23 22 26 26 27 43 45 39 47 48 45 43 44 32 31 33 25 21 22 24 25 27 27 29 29 29 30 27 24 28 22 23 25 23 23 29
4 6 5 2 11 24 23 28 19 21 21 22 36 44 43 47 46 49 40 36 32 35 35 29 27 25 29 32 33 32 32 31 31 34 35 32 28 23 23 29 27 29 30
4 5 6 6 7 9 17 23 29 25 24 31 35 32 47 49 39 39 40 33 27 29 29 31 33 33 32 33 34 34 33 29 23 25 32 32 29 31 33 27 28 27 29

GFSSE_700_spd_066.txt.gz
Wind_Speed
14 14 18 19 21 22 11 13 20 11 15 15 11 16 13 12 5 5 8 12 12 11 12 12 13 14 14 13 13 13 13 13 13 14 14 15 16 16 15 14 13 14 13
11 18 20 22 26 19 15 10 11 20 19 15 14 17 19 14 8 5 10 13 13 11 12 13 14 13 12 12 13 14 14 15 14 15 15 16 16 16 15 15 13 13 12
12 19 21 24 29 24 15 19 19 23 22 20 19 18 16 13 12 7 10 13 14 12 12 12 12 12 12 12 13 14 14 15 16 14 14 14 15 14 14 13 13 13 12
11 14 23 27 29 27 20 21 19 24 24 22 21 19 14 15 14 10 12 15 13 12 12 12 10 11 13 14 12 12 14 16 16 15 12 12 14 15 14 13 13 12 11
14 14 21 28 31 29 24 21 23 23 25 24 21 21 15 15 15 14 13 15 14 13 13 12 13 12 13 14 14 14 14 14 13 14 13 13 13 14 12 11 10 10 10
15 16 22 27 32 32 26 27 21 24 26 26 23 21 16 16 14 16 15 17 15 15 15 15 14 14 14 13 13 13 13 13 13 14 14 12 12 11 11 10 10 10 10
19 19 24 27 31 40 30 30 23 21 25 25 25 19 17 15 14 17 18 18 17 17 15 15 14 15 15 13 12 12 13 13 14 14 11 10 10 11 11 11 11 12 12
23 21 26 28 26 17 22 32 25 24 28 27 25 22 16 14 16 19 21 20 20 18 17 17 16 14 13 13 12 13 14 14 13 12 9 9 11 10 11 11 13 13 12
23 23 25 27 28 23 26 33 33 30 33 29 25 26 24 21 14 21 22 21 19 19 19 17 15 14 12 13 12 12 13 14 13 11 11 11 12 11 11 12 12 10 9
22 24 25 30 33 28 29 35 27 31 36 33 30 27 24 27 24 21 23 22 21 21 19 17 14 14 14 14 13 13 13 13 12 11 12 11 10 10 12 11 9 8 7
22 25 26 31 33 37 33 37 38 36 35 31 34 30 28 26 27 26 25 25 23 21 19 17 16 16 15 14 14 14 13 12 12 12 12 10 10 11 10 7 7 6 5
25 26 30 34 35 36 39 35 43 44 40 38 33 40 41 36 28 27 28 27 24 22 19 18 17 16 15 13 14 13 13 12 12 12 11 10 11 10 9 7 7 6 4
23 24 28 32 36 44 46 48 48 42 34 38 42 35 43 38 33 31 31 29 26 24 22 21 18 15 14 14 12 12 12 13 12 12 11 10 10 8 7 5 3 3 2
19 23 29 36 45 40 38 49 43 53 45 44 39 41 42 37 35 35 32 30 28 25 22 18 17 17 15 14 12 12 12 13 13 12 11 9 7 6 5 3 1 1 2
14 21 17 21 13 28 49 49 45 41 43 35 45 36 44 37 38 35 32 29 27 25 21 19 17 16 15 14 14 14 14 14 14 13 11 9 7 5 3 2 2 4 5
13 16 12 9 7 21 25 45 43 35 36 29 36 44 38 38 37 34 31 29 27 25 23 20 17 15 13 13 15 14 14 13 14 12 10 9 7 4 2 2 3 4 7
8 15 7 13 13 10 24 34 28 28 31 38 37 39 39 37 34 33 30 27 29 26 23 22 17 13 12 14 15 14 14 13 12 13 10 8 7 5 6 8 7 8 9
9 12 11 10 12 13 19 21 28 34 33 39 40 47 38 40 34 32 30 33 30 26 20 11 8 10 11 14 15 15 15 14 14 13 11 10 9 9 10 11 12 13 14
9 15 19 13 13 13 20 16 22 22 33 36 39 47 43 43 38 37 35 29 26 19 16 12 17 12 11 12 13 14 15 15 14 14 12 11 11 11 13 14 16 17 18
10 18 21 16 18 12 16 20 22 19 31 37 37 44 39 43 39 33 33 33 25 21 17 19 16 13 12 13 14 15 15 16 15 14 13 12 12 14 14 14 17 19 20
11 19 21 19 22 24 17 17 22 23 26 38 34 44 43 42 36 40 40 33 29 24 23 18 16 15 13 12 13 13 14 15 15 15 14 14 14 15 16 18 20 21 24
4 20 17 19 22 21 20 19 15 22 26 33 39 43 51 49 45 43 39 36 31 27 25 24 18 18 18 15 12 13 15 16 17 17 18 19 18 19 20 20 22 24 24
3 13 16 23 16 21 21 22 25 20 32 33 37 41 37 45 44 42 41 37 34 29 27 27 22 20 22 21 16 16 18 21 21 22 24 24 25 25 26 24 22 26 25
3 2 11 20 23 22 25 24 27 17 31 24 30 39 47 52 49 43 43 39 37 33 31 31 30 26 27 25 21 18 21 24 28 25 31 28 29 31 29 32 34 24 26
1 2 2 6 13 23 27 26 22 26 31 24 35 39 42 53 50 48 45 44 41 39 38 36 31 32 31 22 20 24 25 29 32 33 33 34 33 34 38 33 26 25 28
6 4 2 2 4 11 23 23 26 25 26 29 31 32 45 46 51 46 50 48 47 41 39 40 33 31 31 26 27 28 29 33 35 35 35 31 30 26 28 28 28 30 27

GFSSE_700_spd_069.txt.gz
Wind_Speed
16 13 14 18 16 22 15 9 10 14 12 11 10 8 6 4 4 9 11 12 12 12 10 10 10 10 11 11 11 11 12 13 12 12 12 12 12 12 13 12 11 10 9
17 13 15 19 22 26 22 8 8 16 18 16 10 10 9 5 5 9 11 12 12 10 10 10 11 11 12 13 14 14 14 14 13 14 13 14 13 12 11 11 11 11 10
17 13 15 21 24 30 25 17 13 14 13 15 13 14 12 9 7 7 12 10 12 11 11 12 12 12 12 13 13 14 15 15 14 13 12 12 13 13 12 11 10 10 9
17 16 14 24 26 30 24 22 22 18 14 20 17 16 14 13 10 7 10 11 13 12 13 14 13 13 12 14 15 15 15 14 14 14 12 11 12 13 12 12 11 10 9
19 19 17 21 28 33 30 28 25 24 24 23 19 15 16 14 10 8 8 12 13 14 15 14 13 13 14 13 13 14 15 14 13 13 12 12 13 13 12 11 10 10 10
20 21 20 21 30 37 39 30 27 25 27 23 23 18 18 15 10 8 9 11 14 15 15 15 13 14 15 15 16 14 15 15 13 12 13 13 12 10 10 10 10 10 10
19 22 23 22 32 40 47 30 29 33 30 25 26 22 19 13 10 9 11 14 15 15 15 14 16 15 14 14 14 14 13 13 14 13 12 10 10 9 10 11 11 11 11
21 22 23 23 32 38 33 34 47 38 30 26 24 21 18 16 14 12 13 15 16 16 16 16 16 15 15 14 13 14 14 15 14 12 11 10 10 10 11 11 13 12 11
21 22 23 25 25 31 31 35 27 35 30 26 25 25 18 14 14 13 14 17 17 17 17 17 16 15 14 13 13 13 14 14 13 11 11 11 11 11 12 13 11 10 8
17 23 25 26 28 31 31 31 21 29 30 27 28 24 21 19 17 11 17 18 19 18 18 18 16 15 15 14 14 15 13 11 11 10 10 11 10 11 13 11 9 7 6
22 25 26 24 28 31 31 33 27 24 30 29 28 25 25 23 25 17 19 19 20 21 19 17 17 15 15 14 14 14 14 12 10 10 10 9 9 11 11 8 7 6 6
32 31 29 26 26 29 32 35 28 24 27 30 33 29 30 24 27 26 20 21 22 21 20 18 16 15 14 14 14 14 12 12 12 11 11 9 11 12 10 8 6 5 4
25 23 26 26 29 29 35 32 31 32 30 38 39 34 28 28 31 35 25 27 26 23 22 20 18 16 15 15 16 15 14 14 14 13 12 11 11 10 9 6 4 2 2
10 12 19 24 25 31 35 36 37 45 40 38 36 36 36 36 36 32 29 30 27 25 23 20 19 18 17 17 15 14 14 15 14 13 12 10 9 8 7 6 4 2 1
7 13 19 23 28 29 38 38 43 43 40 42 36 37 32 33 37 34 32 31 28 25 23 21 20 19 18 16 14 15 15 15 14 14 13 11 9 7 6 4 2 2 3
11 15 18 19 26 22 38 47 42 47 41 38 39 22 28 37 41 36 34 32 28 26 24 22 20 18 17 16 14 13 14 15 15 14 13 12 10 8 7 4 3 4 4
10 15 10 2 6 10 21 30 44 47 30 44 38 28 35 42 43 37 34 33 30 28 27 24 19 17 17 16 16 15 15 15 15 15 13 13 11 10 9 8 7 8 8
12 9 9 10 1 3 6 12 35 36 41 36 29 29 37 41 37 36 33 32 29 29 26 22 20 19 16 15 16 16 17 16 15 15 15 14 13 12 12 11 12 11 12
15 14 13 11 5 6 5 20 23 26 19 29 34 33 39 42 36 35 31 30 30 30 27 23 20 17 15 15 15 17 18 17 16 16 15 15 14 15 13 13 14 15 15
18 16 20 16 10 9 14 12 15 23 24 29 35 36 44 49 38 39 34 30 30 30 26 22 19 16 15 15 14 15 16 17 17 16 17 16 16 15 15 15 16 18 18
19 12 25 20 19 13 11 14 17 18 21 38 39 34 41 44 36 38 43 40 33 29 26 20 17 16 18 17 16 14 13 13 15 16 17 16 16 17 16 19 20 21 22
12 10 18 17 16 18 16 14 16 17 15 30 34 32 37 40 44 46 43 39 42 32 26 25 22 21 20 17 14 13 14 14 13 15 17 18 18 20 21 24 24 24 28
7 7 17 16 19 17 16 18 17 18 21 28 37 31 41 45 46 43 45 42 35 33 29 28 28 25 23 21 18 17 15 12 13 17 18 21 23 25 26 28 29 31 30
3 1 10 14 20 20 20 20 19 16 20 21 30 36 37 47 49 51 43 42 40 38 37 34 32 29 25 23 25 23 19 17 11 12 22 24 27 29 29 33 33 35 32
5 1 3 10 18 22 23 21 22 24 21 21 29 38 37 42 45 44 45 50 47 44 41 36 34 34 31 27 29 25 25 23 22 22 24 29 35 34 32 32 33 34 40
6 5 3 4 8 15 20 21 23 25 23 22 30 32 34 41 44 50 51 50 48 44 45 39 40 40 32 34 30 29 28 26 24 26 28 29 32 36 40 34 26 23 25

GFSSE_700_spd_072.txt.gz
Wind_Speed
11 14 13 11 16 17 21 20 16 17 9 9 12 11 8 8 10 10 10 14 14 13 11 11 10 9 9 9 9 9 9 10 10 10 10 10 10 10 10 11 9 8 6
15 12 11 11 19 20 22 18 17 14 14 13 14 12 12 9 7 9 10 12 14 12 11 12 11 11 11 11 11 11 11 11 12 11 11 11 11 10 10 10 10 8 8
20 11 12 11 17 21 25 22 16 17 16 13 17 13 15 12 8 9 10 11 13 12 12 12 13 13 13 12 13 14 13 13 12 12 11 12 13 13 12 12 10 10 9
21 17 12 14 17 22 28 22 19 19 20 17 18 14 14 11 11 10 10 11 13 12 13 14 14 14 14 15 16 17 16 16 15 14 12 12 12 13 12 11 11 10 10
21 23 17 16 16 25 30 28 26 23 22 20 21 18 12 12 11 10 10 11 12 12 14 14 13 15 15 15 15 14 14 14 13 14 12 11 12 14 13 12 11 10 9
22 24 22 20 21 23 29 36 30 29 25 20 24 19 14 14 12 9 9 12 13 12 14 14 14 15 16 16 16 16 15 13 10 13 13 13 12 12 11 10 10 10 10
21 25 21 21 23 26 31 36 39 31 29 25 25 20 16 15 12 10 9 11 14 14 14 14 15 15 16 15 14 14 13 11 11 13 14 12 12 10 11 11 11 11 11
20 23 25 22 23 26 34 40 35 26 29 38 27 22 19 17 15 11 11 13 15 16 16 15 15 16 15 16 15 13 12 12 13 13 11 10 10 10 10 10 12 12 12
16 19 22 23 22 29 30 44 43 47 23 28 24 22 19 18 16 15 11 15 17 17 16 17 17 16 17 15 14 13 12 10 12 11 10 10 10 10 11 12 10 9 9
18 18 18 22 23 27 30 29 29 31 38 45 32 22 22 19 16 13 18 18 18 18 18 18 17 17 15 15 15 14 12 10 13 11 11 11 10 10 12 11 9 7 8
21 25 23 24 25 28 28 29 30 26 35 29 29 26 28 22 19 13 15 21 19 19 19 18 18 16 16 17 16 16 15 15 13 13 12 12 12 13 12 10 7 7 7
29 32 32 30 28 26 25 25 24 22 20 29 32 33 31 26 24 20 18 21 21 21 20 19 19 17 16 17 17 16 15 15 13 13 12 11 12 14 12 10 8 8 7
30 27 17 21 24 25 24 24 21 24 23 26 41 36 35 30 28 28 23 25 23 22 22 21 19 17 16 17 17 15 14 14 13 12 11 11 12 13 11 9 7 6 5
24 19 7 11 22 24 26 25 24 22 24 28 35 38 34 32 28 27 28 25 24 23 23 21 21 19 18 17 15 15 16 12 13 13 12 11 11 11 10 8 6 4 3
21 19 9 11 18 24 27 25 30 28 25 34 42 39 29 31 25 28 32 28 27 26 23 22 20 19 19 17 15 17 15 13 14 13 13 12 11 10 9 7 5 3 4
19 17 15 15 16 23 31 27 26 31 31 25 43 26 28 25 20 26 32 25 26 25 23 23 20 19 18 16 17 16 17 12 15 15 14 13 12 10 8 6 5 5 4
19 18 14 14 11 15 18 23 35 38 34 34 38 38 28 27 26 26 34 31 28 26 26 25 21 20 18 17 17 17 16 15 14 15 15 14 13 11 10 8 8 7 6
21 21 14 17 13 13 8 20 17 27 36 35 28 26 26 29 30 30 34 36 31 30 28 26 23 22 20 18 18 16 15 16 14 14 15 15 14 13 12 11 11 10 9
21 23 17 13 11 6 5 13 19 30 34 38 33 32 29 25 30 37 39 35 34 30 31 28 26 23 20 18 17 16 16 15 15 15 15 17 16 14 15 15 14 13 13
21 24 17 15 7 3 4 10 10 18 37 29 29 26 24 25 31 36 37 33 32 37 29 28 26 21 18 17 15 16 17 16 16 17 16 17 16 17 16 15 16 15 16
19 23 10 17 10 4 4 12 12 22 19 23 25 26 27 36 37 47 33 36 35 34 30 26 25 23 18 18 17 14 15 16 17 18 17 17 17 17 17 17 16 18 18
16 14 10 19 12 11 7 10 14 13 14 15 21 30 30 37 35 40 39 37 34 31 30 30 29 23 18 16 15 14 16 17 16 15 16 16 17 17 18 20 21 21 22
9 8 5 12 13 11 12 12 13 14 14 20 27 28 30 29 33 47 42 37 40 35 33 35 37 31 21 20 20 23 23 16 15 18 16 16 19 21 22 23 24 27 29
7 4 3 10 12 16 15 11 13 13 14 16 19 24 32 28 36 49 51 45 47 38 41 39 38 28 26 26 26 25 21 21 20 18 19 16 19 21 23 26 27 27 31
7 3 1 5 11 17 16 15 15 14 12 17 18 25 33 29 26 42 45 42 41 42 44 42 38 35 31 29 31 31 28 24 24 23 20 21 24 25 26 27 30 32 33
6 5 3 2 5 11 19 17 21 18 20 20 19 22 30 30 34 38 37 42 45 48 44 44 42 29 31 33 30 28 29 27 27 27 25 25 27 28 28 31 34 37 38

GFSSE_700_spd_075.txt.gz
Wind_Speed
5 7 9 11 12 13 17 19 22 21 17 14 15 15 13 13 14 15 15 15 15 14 12 11 12 11 11 11 11 11 10 9 9 9 10 11 10 10 10 11 10 8 6
8 11 10 9 11 14 17 21 21 20 18 15 16 14 13 12 13 15 15 15 14 14 13 13 12 13 13 13 13 13 12 11 11 10 11 11 11 10 11 10 9 8 9
16 18 17 14 10 14 18 21 24 24 21 17 18 15 16 14 12 14 16 15 14 14 14 15 14 14 14 14 14 13 12 12 11 11 11 11 12 13 13 12 11 10 9
26 26 22 19 14 14 19 22 27 27 25 19 20 18 17 15 12 14 16 16 15 13 13 14 15 14 14 14 14 14 15 15 15 14 12 12 12 12 11 10 10 10 9
29 27 25 22 18 16 21 26 29 27 26 24 22 21 20 17 14 14 14 17 16 13 13 14 15 15 14 14 15 15 15 14 14 15 13 11 11 12 12 11 10 9 9
27 29 26 24 22 20 20 27 32 29 27 24 24 24 24 19 17 15 14 15 16 15 14 15 15 15 16 16 15 16 14 13 13 13 13 12 12 12 12 11 10 9 8
26 26 24 22 24 23 23 27 34 32 31 29 26 27 28 20 18 14 14 15 18 18 17 16 15 15 15 14 15 13 12 16 14 14 14 13 12 10 10 10 9 8 9
25 26 21 20 23 24 25 30 34 37 48 44 36 37 34 25 20 15 13 16 18 19 19 17 16 15 15 15 15 13 12 13 14 14 14 12 11 10 10 10 11 11 10
26 25 19 18 20 27 28 30 34 39 39 30 28 31 33 26 20 19 16 16 19 19 19 18 17 17 16 16 15 13 12 11 13 15 14 13 12 11 13 14 12 9 9
24 22 22 23 23 25 27 28 28 32 39 40 37 41 32 24 21 21 19 19 20 20 20 19 18 18 18 18 15 13 14 16 15 14 13 12 12 14 15 14 12 9 9
23 19 21 27 27 28 25 26 26 25 27 30 24 28 32 26 21 23 22 18 21 21 21 20 20 20 19 17 16 15 15 15 14 13 12 13 12 13 14 12 10 9 9
26 22 25 30 29 31 28 25 23 22 23 27 31 38 33 28 22 20 26 27 24 23 22 22 22 22 20 19 18 14 13 14 13 13 13 12 12 12 11 10 9 9 8
25 23 25 20 20 23 28 24 21 18 18 19 29 40 45 33 28 24 23 27 27 27 26 26 24 22 21 20 19 14 13 14 13 13 14 12 12 13 11 9 8 9 8
22 20 21 17 15 18 22 20 21 20 16 12 29 43 39 36 31 27 24 25 25 25 24 24 23 22 22 21 17 13 12 14 15 15 14 13 13 13 12 11 9 8 6
22 18 18 15 13 16 22 19 23 20 15 18 20 36 39 37 30 28 24 25 27 27 26 25 25 24 22 19 18 16 13 16 16 15 14 13 13 13 13 11 9 8 6
22 17 17 15 13 16 20 25 24 20 24 17 19 42 41 36 28 26 16 31 28 28 28 27 25 24 22 20 19 16 13 17 17 15 14 13 13 13 11 10 8 7 5
20 16 18 17 13 17 21 24 23 19 17 17 24 38 35 28 24 22 21 32 30 30 30 29 26 23 22 22 21 17 14 15 15 15 15 14 13 12 11 10 9 8 6
19 19 19 16 16 15 16 18 26 26 27 24 24 33 36 16 21 25 24 33 30 31 30 30 26 24 22 22 20 17 15 13 14 13 14 14 15 13 12 11 10 9 7
18 19 21 16 13 12 13 16 24 23 29 26 24 36 39 28 24 25 24 35 40 32 31 26 26 25 25 23 20 17 16 12 14 15 15 15 15 14 14 13 12 12 11
18 19 21 16 10 9 8 12 17 18 27 32 27 32 32 27 29 26 29 36 39 36 32 32 29 28 25 23 21 19 17 14 15 15 15 16 17 17 16 15 15 14 13
16 18 20 8 11 7 4 14 19 24 23 27 31 35 34 27 23 27 30 35 42 37 34 32 30 29 27 25 21 20 18 17 17 17 18 18 18 17 17 17 16 15 14
13 14 14 12 15 6 2 11 16 21 27 32 32 27 26 26 26 32 31 37 41 42 42 34 32 31 28 21 17 15 16 17 18 20 19 19 17 18 18 17 17 16 17
12 10 6 9 10 10 8 6 16 24 24 32 32 33 34 29 29 32 33 36 40 33 42 33 31 30 26 23 32 25 27 22 18 18 18 19 19 19 18 20 19 18 21
11 6 4 7 9 8 11 9 9 10 17 26 29 27 26 28 35 31 36 44 38 37 39 25 30 30 32 36 32 27 22 21 24 22 21 23 23 21 22 22 22 21 22
11 6 3 5 6 8 11 14 11 12 10 17 21 22 26 24 28 26 27 43 40 39 35 34 34 35 36 37 33 30 29 27 25 28 25 22 25 20 20 22 22 21 21
8 6 3 2 5 6 8 13 11 13 12 11 20 24 25 25 29 28 29 43 47 47 44 38 37 37 39 37 37 37 31 29 28 29 25 23 23 27 26 25 24 24 25

GFSSE_700_spd_078.txt.gz
Wind_Speed
2 5 7 9 13 13 12 15 18 21 21 20 19 21 19 19 18 18 16 15 14 13 13 13 13 14 13 13 13 12 11 11 12 12 13 12 11 11 12 12 12 10 9
1 8 13 13 14 12 13 17 20 22 22 20 21 18 17 18 19 19 18 17 15 14 14 14 15 15 15 15 14 13 11 10 10 10 12 12 11 11 11 11 10 7 7
10 15 21 22 18 14 14 17 20 23 23 22 21 17 19 19 18 19 19 18 17 16 15 15 16 16 16 15 14 12 12 11 10 9 10 11 11 11 11 10 8 8 8
21 24 25 22 20 16 16 19 20 25 27 24 23 19 15 17 16 16 17 18 17 16 16 16 17 17 16 15 15 14 13 11 10 11 13 12 10 11 11 10 9 8 7
22 25 22 23 22 20 19 20 23 26 29 29 23 22 25 19 17 16 17 18 18 17 16 18 18 18 16 16 14 14 12 13 15 13 11 10 9 9 9 9 9 8 7
25 24 23 24 22 23 21 21 27 29 28 30 24 27 24 23 20 19 18 19 20 19 18 17 17 17 16 15 13 11 11 12 12 13 12 10 10 11 11 10 9 8 7
27 23 27 25 21 22 24 24 28 32 33 33 40 28 30 29 23 22 21 20 22 20 20 19 18 16 14 13 11 11 13 14 14 13 12 11 11 10 10 9 9 8 8
25 28 27 25 21 21 23 25 30 37 42 42 44 35 36 30 29 24 21 21 22 22 22 21 18 16 16 14 13 14 14 15 14 13 14 13 12 10 10 9 9 10 9
28 28 26 25 22 21 22 26 33 35 39 40 33 39 27 31 31 26 24 22 23 23 23 21 19 18 17 15 16 17 16 13 14 15 15 13 11 10 10 11 11 10 9
23 26 24 24 24 24 24 27 31 31 39 37 35 37 18 34 32 26 24 23 23 23 23 21 20 20 17 15 16 17 16 15 16 15 14 13 11 11 11 12 11 10 10
31 27 25 22 23 26 28 28 30 28 28 30 30 36 33 41 32 26 25 25 24 24 25 24 22 21 18 17 17 15 16 16 15 14 13 13 12 12 14 12 10 9 10
26 26 22 22 25 26 25 30 28 25 26 28 27 28 27 36 33 25 24 24 28 26 25 24 24 23 20 18 17 18 17 15 15 15 15 14 14 14 14 12 11 11 10
26 26 21 23 23 21 19 24 27 26 24 24 24 26 23 39 34 29 28 27 29 29 28 27 26 24 21 19 17 17 17 16 16 16 15 13 13 15 13 12 11 12 10
25 24 20 21 22 20 17 19 28 27 24 20 21 24 29 36 34 33 32 33 29 30 29 29 28 24 23 20 17 16 16 16 16 17 15 15 14 15 13 11 10 10 9
26 23 19 21 21 19 17 16 21 24 22 20 24 26 39 47 35 32 31 34 33 31 33 30 28 26 24 19 18 18 18 17 17 17 16 15 14 14 13 12 11 9 7
25 23 19 20 21 18 18 18 19 21 22 20 21 16 45 48 35 33 27 29 32 32 32 30 30 28 24 19 19 19 19 18 17 17 15 14 14 14 13 12 10 9 8
22 21 19 20 21 19 19 19 24 23 24 23 17 19 42 42 37 30 26 24 29 31 32 31 31 30 25 22 21 19 18 16 17 16 16 15 15 14 12 11 11 10 8
22 20 19 21 21 20 19 19 22 25 23 20 18 23 40 38 34 31 28 20 28 33 34 35 32 28 26 23 21 19 17 14 16 16 17 16 16 14 13 12 12 11 8
22 20 20 21 22 19 15 18 21 24 24 22 22 32 43 36 36 31 26 18 33 35 37 35 32 29 27 26 22 19 17 15 15 16 16 17 16 15 15 14 13 12 10
22 19 20 23 19 12 11 13 16 23 26 26 24 25 38 34 24 23 23 28 32 37 37 34 32 30 28 27 23 22 19 17 16 16 18 18 18 18 16 15 15 13 13
21 18 19 21 8 8 9 14 14 24 26 29 28 23 41 43 29 21 29 29 30 42 39 34 34 31 29 28 27 26 22 18 19 20 21 20 20 19 18 18 17 16 16
20 17 16 11 8 6 5 5 16 24 24 36 31 29 33 40 34 29 25 28 39 42 40 36 35 33 31 29 30 26 24 22 20 22 22 22 21 20 21 20 19 18 18
18 16 13 5 8 7 5 5 12 20 27 26 33 37 33 36 32 28 27 29 35 43 43 40 37 35 32 33 30 27 23 21 20 25 24 23 22 23 22 22 21 20 20
16 15 12 7 7 7 7 5 7 15 26 31 31 26 28 30 27 31 25 31 39 41 40 40 37 32 30 31 30 27 26 27 30 22 22 21 22 23 23 22 22 21 20
14 14 11 6 4 8 8 9 8 9 14 31 39 35 31 30 28 26 26 31 37 39 44 45 44 38 31 31 31 31 26 33 23 27 26 22 25 22 23 21 20 19 20
15 13 9 6 2 5 9 11 10 9 12 15 26 33 33 32 24 27 32 27 30 37 41 42 40 31 30 32 32 31 32 34 27 30 27 24 27 26 27 26 25 24 23

GFSSE_700_spd_081.txt.gz
Wind_Speed
6 4 4 7 11 15 13 10 13 17 22 23 23 26 25 18 18 19 17 14 13 13 14 15 14 12 13 14 13 12 12 10 10 14 14 13 12 11 12 14 12 12 13
7 2 6 11 15 16 15 11 15 17 21 22 23 24 26 21 24 18 18 16 15 14 15 16 15 15 15 14 14 13 12 11 11 14 16 14 11 10 12 12 11 7 6
7 9 14 18 19 17 16 16 16 18 22 24 23 23 22 21 19 19 18 17 16 16 16 16 15 15 14 14 14 13 12 12 11 11 11 10 10 11 10 9 7 6 5
12 16 18 22 19 17 16 17 18 19 23 25 25 23 20 19 16 17 17 16 17 16 17 16 16 16 16 15 15 15 13 12 12 11 11 11 11 11 9 8 7 7 6
17 20 22 17 18 19 17 17 19 21 24 28 26 26 21 19 18 19 17 17 17 17 17 17 17 17 16 16 15 13 12 12 12 11 11 9 9 10 11 10 8 7 7
19 22 22 19 21 20 18 19 21 22 29 29 31 33 26 21 22 20 17 19 20 19 19 18 17 17 16 14 12 10 11 10 11 12 12 10 10 9 10 9 8 6 5
20 21 24 23 23 20 18 18 22 28 33 33 40 38 32 27 22 23 21 21 21 21 21 20 19 17 14 12 11 12 12 12 12 12 13 12 10 9 9 8 7 5 5
19 18 21 23 23 20 18 16 24 31 35 41 41 31 38 28 26 27 23 21 22 23 23 23 21 18 15 14 13 13 14 14 13 12 12 12 12 10 8 8 7 6 6
19 23 23 27 22 20 18 20 25 30 37 42 47 39 39 37 44 25 27 22 23 26 26 24 21 19 17 15 15 15 14 14 14 13 14 13 11 11 9 8 9 9 8
22 24 28 26 25 22 20 22 24 27 33 39 44 39 30 29 29 36 29 24 22 26 25 24 22 20 17 15 16 16 16 14 15 15 14 13 12 11 10 11 11 9 8
25 25 26 24 26 22 22 25 29 28 31 36 36 35 35 33 25 35 29 24 29 28 25 24 24 21 19 19 18 17 16 15 16 16 15 13 12 11 12 13 11 10 10
22 26 27 26 27 22 22 24 27 31 32 33 32 28 30 25 30 31 32 27 27 26 27 26 25 24 23 21 20 20 18 17 17 17 15 14 13 13 14 13 11 11 11
24 27 28 28 28 24 23 21 21 28 35 31 26 27 27 25 23 36 34 34 31 26 27 26 25 23 22 20 19 19 18 18 17 17 15 15 14 14 13 12 11 11 9
23 25 28 28 28 24 24 20 22 26 29 24 25 26 26 24 23 43 38 37 37 37 31 29 25 23 23 21 20 19 17 17 18 16 15 15 15 15 14 11 11 12 10
23 27 29 31 29 23 22 21 19 22 24 24 23 24 25 26 23 43 39 35 35 35 31 29 29 25 24 23 21 19 18 18 19 17 16 16 15 14 13 12 11 11 10
24 29 28 30 27 23 23 21 19 21 21 30 25 25 26 24 27 38 39 36 33 33 32 32 27 27 26 23 20 20 20 19 18 18 16 16 14 14 13 13 12 11 10
24 25 28 30 27 23 24 23 21 25 25 29 25 26 26 33 42 41 37 34 34 33 31 30 29 28 27 24 22 21 20 17 18 18 17 16 15 15 15 14 14 12 10
25 26 28 31 28 26 26 25 21 26 29 28 28 27 30 32 39 39 35 33 34 34 35 36 33 31 28 25 24 22 19 17 18 18 18 17 15 15 15 14 14 13 10
25 25 28 30 28 28 27 24 21 23 26 20 31 25 21 38 47 39 32 31 28 31 36 36 34 31 27 26 24 21 18 17 17 18 18 17 17 17 16 16 15 14 12
23 24 27 29 27 27 21 18 18 22 25 19 25 20 26 40 42 38 33 28 24 27 34 36 35 31 28 26 25 23 20 19 18 19 19 18 17 17 18 18 17 15 14
20 20 26 27 25 16 11 13 16 20 21 25 29 21 30 42 40 36 34 27 22 28 34 35 34 32 32 31 27 27 25 23 21 22 23 21 19 19 20 20 19 18 17
15 20 24 23 19 10 10 9 13 17 20 26 30 22 32 41 41 40 35 28 25 30 33 34 36 36 35 33 31 30 28 26 26 25 25 22 21 22 22 22 22 21 20
16 17 20 19 14 12 10 6 6 13 22 26 29 28 32 42 40 36 25 31 33 32 27 37 38 37 36 35 32 33 30 29 27 25 23 20 23 25 23 24 24 23 22
15 17 16 17 12 11 10 4 2 13 22 23 25 29 30 40 39 33 25 29 28 28 37 38 39 36 36 35 34 33 28 25 28 28 27 31 29 26 27 26 26 24 23
17 17 15 15 10 8 9 5 3 3 17 23 36 30 32 37 36 41 32 26 27 34 38 40 41 40 40 36 34 33 29 28 34 29 25 30 22 25 25 24 24 24 24
20 16 13 13 7 7 10 10 7 6 8 19 25 35 28 26 36 31 26 30 32 33 39 42 40 41 41 37 32 30 31 34 35 29 25 26 24 27 26 24 25 27 26

GFSSE_700_spd_084.txt.gz
Wind_Speed
11 9 6 4 6 10 11 13 14 10 11 18 21 22 21 20 16 16 13 12 11 10 12 14 15 12 12 12 11 11 11 10 9 11 11 12 13 12 13 14 13 14 13
9 9 7 8 12 15 15 14 13 11 11 15 21 22 23 22 19 19 12 17 14 13 13 14 14 13 12 12 12 12 11 9 11 14 13 13 13 14 14 14 14 14 13
9 9 11 15 17 17 16 13 13 12 13 15 19 21 22 23 21 19 20 19 16 15 14 14 13 13 12 13 14 13 11 11 12 17 16 13 12 13 13 13 10 7 6
11 13 14 17 19 13 13 13 13 13 14 16 19 20 21 21 20 19 19 21 17 16 15 15 14 13 13 14 15 13 12 13 13 13 12 11 10 11 11 9 8 8 7
11 12 15 17 18 18 15 14 14 13 17 19 22 23 24 21 20 16 21 20 19 16 15 15 15 14 14 14 13 13 13 13 13 12 11 10 9 10 10 10 9 8 8
13 13 16 18 18 18 17 15 14 18 20 22 26 26 26 24 18 24 20 18 19 17 16 16 14 14 14 13 12 13 12 12 13 13 12 11 9 10 11 9 8 7 6
14 15 16 14 17 21 18 16 14 20 24 25 28 27 29 28 26 25 22 20 21 19 17 17 17 16 14 13 13 13 12 12 13 13 13 12 11 10 10 10 9 7 6
15 14 14 14 22 22 18 15 15 21 27 30 31 34 31 32 30 24 23 25 22 20 20 20 19 17 16 15 15 14 14 14 13 13 13 11 10 11 10 10 8 8 8
17 15 17 19 21 21 20 19 16 19 25 31 33 38 38 37 36 25 30 29 23 22 20 21 19 19 17 17 17 16 15 14 14 13 12 12 12 12 11 9 9 9 9
16 16 19 20 20 19 22 20 18 19 24 28 33 37 40 42 35 32 37 24 31 23 22 21 20 21 19 19 18 16 15 15 15 14 13 14 13 11 10 10 10 10 9
17 17 17 19 22 22 24 20 20 21 26 29 30 32 36 36 30 39 33 40 33 28 24 23 24 21 21 21 20 18 16 15 15 15 16 15 13 11 11 12 10 8 8
18 17 18 20 21 24 26 22 23 23 26 31 32 33 33 31 25 25 30 31 31 29 26 26 26 25 23 22 20 19 17 16 16 16 16 14 12 11 11 11 10 9 10
18 17 17 19 22 25 26 25 24 23 25 31 32 33 32 26 20 25 23 38 34 31 28 29 28 25 22 20 18 18 17 16 17 16 15 14 12 12 13 12 10 10 10
20 17 19 20 23 25 27 26 26 24 22 28 32 37 29 25 26 24 14 33 34 31 30 28 27 25 23 22 19 18 17 17 17 16 15 14 13 13 12 12 11 12 11
21 19 20 22 23 25 27 26 25 24 23 24 29 30 24 25 25 31 24 31 38 31 29 28 27 25 24 24 22 20 17 18 17 16 16 15 14 14 14 13 12 13 12
18 20 21 21 24 27 28 27 27 25 23 25 24 24 24 25 27 32 30 38 40 35 33 28 26 26 25 23 20 20 20 18 17 17 16 17 16 16 15 14 13 13 12
23 23 23 22 24 28 29 27 28 25 24 25 24 26 24 25 26 22 30 43 39 37 35 34 30 33 28 27 23 20 20 19 17 16 16 17 16 16 16 16 15 15 13
27 29 26 23 25 30 32 30 28 27 24 26 22 30 27 28 22 15 38 37 38 38 35 32 31 30 29 26 24 21 19 19 17 17 19 19 18 18 17 18 17 16 14
29 30 28 23 25 31 34 31 27 24 24 25 27 30 28 30 32 28 38 40 38 36 34 31 29 29 30 27 25 23 20 18 17 19 20 20 19 18 18 18 17 16 15
29 29 28 23 26 31 33 30 20 19 21 25 30 30 38 35 31 29 38 43 38 37 37 35 33 29 29 26 26 25 21 20 18 20 21 20 19 19 19 19 18 17 17
19 21 24 20 26 29 30 19 16 13 18 24 28 22 28 36 30 32 46 42 39 36 34 35 33 33 33 31 29 30 25 24 22 23 23 21 21 20 20 20 19 18 19
19 17 19 20 24 26 21 15 15 18 22 22 24 19 25 28 38 46 41 38 36 35 36 32 32 33 35 34 34 30 28 26 25 23 25 24 23 23 21 21 21 20 21
18 17 16 20 24 23 16 14 15 18 16 21 21 28 20 25 43 43 39 37 35 32 35 34 32 35 32 32 31 31 30 28 24 26 24 21 26 23 21 18 22 23 23
19 16 17 18 23 20 14 13 12 11 12 20 16 28 19 32 47 43 40 38 31 34 35 35 32 34 30 33 33 31 29 28 25 28 26 26 24 21 22 35 26 25 25
20 15 16 18 18 16 13 11 9 6 10 16 16 19 23 34 39 41 44 42 36 38 36 36 38 39 33 34 33 30 32 29 33 28 27 23 26 30 35 37 26 30 29
23 16 18 17 15 14 12 11 10 5 5 13 17 25 31 35 42 43 40 28 28 32 35 39 36 30 33 32 32 31 32 30 30 28 25 28 31 32 33 22 28 28 27

GFSSE_700_spd_090.txt.gz
Wind_Speed
9 7 6 9 10 9 9 10 10 8 5 4 7 8 9 10 8 8 5 6 4 4 7 8 8 9 8 9 10 10 8 7 7 8 9 11 11 11 11 11 11 12 12
10 6 5 10 12 12 13 14 14 11 6 5 8 9 8 10 11 9 6 6 6 4 5 8 9 9 9 9 10 10 9 8 8 10 10 12 11 11 11 12 12 12 13
10 5 4 10 12 14 13 11 9 8 7 8 9 10 9 10 13 11 10 11 9 7 5 9 10 10 10 10 10 8 8 7 10 11 13 12 12 13 14 13 13 13 13
9 2 3 5 9 10 10 8 6 6 8 10 11 12 11 11 13 14 14 14 11 11 10 9 10 11 11 10 9 9 8 7 11 13 13 11 13 15 14 15 12 11 10
6 4 5 7 11 11 8 7 6 6 8 11 13 14 14 13 13 15 17 16 12 11 12 11 10 11 11 11 11 12 10 8 13 13 12 11 13 14 15 14 13 11 10
6 6 7 10 12 8 11 10 8 8 9 12 14 15 16 16 16 18 18 19 16 14 13 13 12 11 12 11 12 13 12 11 15 16 14 13 14 15 14 12 11 11 8
9 8 9 11 10 9 13 12 8 7 9 11 15 18 18 18 19 21 18 19 18 15 14 14 14 12 12 13 13 14 13 14 17 19 17 16 14 14 12 11 11 9 8
11 10 9 10 11 11 11 9 8 7 7 11 14 18 21 20 22 21 21 22 20 16 18 18 15 13 13 14 15 15 15 16 17 19 18 16 13 14 13 12 10 9 8
13 10 11 10 12 12 11 9 8 8 8 9 14 17 20 22 23 24 25 26 26 20 23 20 17 15 15 15 17 17 16 18 19 17 17 13 13 13 13 11 10 9 9
15 11 12 13 15 14 12 9 10 8 9 11 15 19 21 24 25 26 25 30 32 28 27 25 19 17 17 18 17 18 17 17 18 16 16 14 12 12 12 11 10 10 9
18 13 13 15 17 15 12 10 11 11 10 13 16 19 21 25 27 29 30 37 36 27 29 35 21 18 19 20 19 19 19 19 18 18 17 15 14 13 12 11 11 10 9
20 17 17 16 17 14 10 11 11 12 13 15 17 18 24 29 30 31 31 31 41 43 25 34 22 18 21 23 23 22 21 20 20 19 17 15 14 13 13 12 12 10 9
24 20 18 18 17 16 12 13 11 12 14 16 16 19 23 29 30 32 30 30 38 33 29 39 31 23 22 24 23 22 24 22 20 20 17 16 14 14 13 13 13 11 11
28 24 23 22 20 16 14 13 13 13 14 16 17 19 21 26 33 31 31 35 37 35 33 36 36 28 26 27 23 22 22 22 21 20 18 17 15 15 14 14 13 12 12
32 28 24 23 22 19 19 15 14 14 16 17 18 20 20 24 33 30 30 30 29 19 27 26 34 38 27 26 25 24 23 21 19 19 19 17 17 16 17 16 14 13 13
34 31 27 23 24 23 22 20 18 16 18 20 21 22 20 23 27 32 34 29 25 22 23 24 32 33 28 28 25 24 24 20 20 20 19 19 18 18 18 17 15 15 15
33 31 27 26 25 25 25 24 23 21 21 23 24 26 27 23 31 28 34 31 25 24 21 30 35 31 29 28 25 25 23 21 20 22 22 20 19 19 19 18 17 17 17
34 34 31 29 27 27 27 26 26 25 24 27 29 28 26 29 27 29 31 34 28 28 16 35 39 32 31 30 28 25 24 22 23 23 23 22 20 20 20 19 18 18 19
35 36 35 32 30 30 30 29 29 27 26 30 30 24 25 27 28 33 29 33 30 30 23 36 43 34 33 33 29 28 26 22 22 21 23 20 20 21 21 20 19 19 19
38 37 36 33 32 31 31 32 32 28 28 32 27 22 23 26 30 33 32 33 30 36 33 35 39 37 35 33 31 32 26 24 23 22 21 20 21 21 21 21 20 20 20
41 37 36 34 33 31 28 29 30 27 30 31 25 22 24 28 31 33 30 30 33 40 29 38 41 40 37 33 35 31 28 26 24 24 23 23 23 22 22 22 20 21 21
41 38 36 34 31 28 24 25 26 28 31 28 25 24 25 29 34 35 35 35 34 33 38 40 41 42 39 35 33 30 31 25 27 22 22 23 23 24 24 25 21 22 22
39 38 36 36 30 26 23 22 26 29 30 25 24 25 27 31 38 35 35 36 35 26 38 47 42 42 37 35 35 32 30 28 24 24 22 21 23 24 24 22 22 24 23
32 35 39 35 26 24 21 22 25 29 25 22 24 24 28 35 43 36 34 37 35 34 39 44 42 40 40 37 33 31 29 24 25 24 22 22 22 24 22 22 23 24 23
32 33 34 32 26 24 19 22 24 25 21 21 22 23 21 28 34 37 33 43 34 30 41 45 39 40 38 36 30 31 29 28 26 22 22 20 21 20 21 23 24 24 23
31 30 31 29 24 22 19 22 23 21 19 19 19 18 20 22 30 31 38 39 42 32 44 41 37 38 38 35 30 33 32 29 24 25 22 21 19 21 22 22 25 25 29

GFSSE_700_spd_093.txt.gz
Wind_Speed
4 8 6 6 8 10 11 10 9 9 9 8 8 8 8 6 6 5 3 2 0 1 4 7 8 8 8 8 8 8 6 6 6 7 7 8 9 9 9 8 9 10 10
6 8 6 5 8 11 12 13 13 13 13 10 9 10 10 8 7 7 5 3 2 1 2 6 8 8 8 8 8 8 7 7 7 7 9 11 10 9 9 9 9 9 9
8 8 6 4 8 12 14 14 11 11 11 11 11 12 12 10 8 8 7 6 4 3 3 5 8 8 7 7 7 7 7 7 8 10 10 11 10 10 10 9 9 10 10
8 7 2 4 7 9 12 9 8 6 9 11 12 13 13 12 10 10 9 8 8 6 7 5 8 9 9 8 7 6 6 4 8 10 11 11 11 11 10 10 10 10 8
7 3 1 5 7 10 6 7 6 6 8 11 13 14 14 14 12 11 10 12 11 10 10 8 10 10 10 9 8 8 7 6 10 12 13 11 10 12 11 11 11 9 7
6 4 3 5 8 10 7 8 6 6 8 11 13 15 16 15 13 13 14 13 13 12 12 10 11 11 10 10 10 10 9 8 13 12 12 10 11 13 13 11 9 7 8
9 7 6 6 7 8 8 8 5 5 7 10 13 16 16 16 15 17 17 16 15 14 14 13 13 13 11 11 12 11 11 12 15 16 13 12 12 11 11 11 11 10 9
12 11 7 7 8 8 8 7 5 5 7 9 12 15 17 16 19 19 19 18 17 16 15 13 16 13 12 12 13 13 14 14 15 16 16 15 12 14 14 13 10 10 8
16 14 10 9 9 11 12 9 7 6 7 9 12 14 16 19 22 21 21 20 20 20 19 14 19 16 14 14 13 15 15 16 20 19 17 16 15 15 13 12 10 10 8
20 18 14 13 11 12 13 11 9 8 7 10 12 16 19 19 22 22 21 24 24 24 22 19 20 20 17 16 14 16 17 19 12 22 21 16 16 14 12 11 11 10 8
29 23 19 15 15 14 14 11 9 10 8 10 12 16 17 20 22 24 25 26 28 28 29 27 23 17 21 18 16 19 19 22 24 19 18 17 16 14 13 11 10 10 9
31 28 23 18 18 17 16 11 10 10 9 10 12 16 18 21 23 27 28 30 31 32 33 24 26 19 24 21 21 22 22 22 20 20 18 17 16 15 14 12 11 11 10
31 33 27 24 21 19 19 15 12 11 11 10 11 14 19 22 24 28 30 31 30 34 37 27 25 27 25 22 22 22 23 20 25 20 17 18 16 17 14 13 13 13 12
33 34 32 28 24 23 22 18 15 13 12 11 11 13 18 20 22 30 35 34 33 35 41 32 32 32 27 23 22 23 19 17 23 23 22 18 18 17 16 15 15 14 12
26 35 37 31 29 26 26 21 19 16 15 14 14 14 17 21 24 30 34 33 31 28 30 37 39 34 31 29 24 26 24 26 13 21 22 19 20 18 17 17 17 14 13
30 30 39 34 33 30 28 24 24 22 19 18 18 18 18 22 27 30 29 36 30 34 28 25 21 29 37 31 28 27 26 25 30 24 19 20 20 19 18 18 17 15 15
32 36 42 40 36 32 30 28 28 26 25 22 21 21 22 24 27 29 28 35 30 31 27 19 18 36 36 30 29 28 30 29 23 22 21 21 20 20 19 19 18 16 15
30 40 44 44 39 34 31 32 30 29 29 27 24 24 25 26 28 32 30 33 31 30 27 22 25 31 38 28 31 29 31 27 25 25 21 21 20 21 20 19 19 17 17
34 32 43 43 39 35 34 34 32 31 32 30 28 26 28 28 30 32 32 31 33 31 30 22 27 32 35 31 30 30 30 26 23 22 22 19 21 21 20 19 19 18 18
32 32 41 42 39 37 36 36 35 35 35 32 30 29 29 30 28 30 34 35 34 29 31 28 25 38 37 28 26 30 29 26 24 23 20 19 19 21 22 19 21 19 19
29 31 44 44 41 40 38 38 36 36 34 33 32 30 32 30 28 30 31 31 35 34 31 30 27 41 35 34 34 30 26 27 24 23 21 21 23 23 23 21 22 20 20
32 37 43 44 42 40 38 35 34 34 32 31 33 31 33 31 29 31 32 35 37 32 32 36 33 39 39 36 38 35 29 27 26 23 23 24 24 25 24 21 22 22 22
35 36 42 43 42 39 37 32 31 32 27 31 30 33 29 28 29 32 33 35 34 35 36 35 34 39 43 36 37 35 34 29 25 24 23 24 24 21 20 21 22 21 23
32 36 40 41 44 39 36 32 32 26 27 28 30 32 30 29 30 32 34 37 35 38 34 38 41 34 42 40 35 36 30 24 26 25 24 24 22 19 20 19 20 21 21
28 35 37 39 42 38 35 33 28 25 27 28 31 29 30 31 31 29 35 40 36 39 31 37 40 39 45 40 37 33 30 26 20 18 21 22 21 20 20 21 21 21 22
25 34 34 36 36 37 35 31 25 24 25 29 28 27 28 28 24 30 33 37 37 35 35 35 41 44 41 40 37 34 30 31 24 22 13 17 21 22 19 20 21 22 22

GFSSE_700_spd_096.txt.gz
Wind_Speed
10 7 7 9 9 7 5 8 10 11 11 9 8 8 9 10 8 7 6 3 3 3 4 6 7 8 7 7 7 7 5 5 5 5 5 6 9 9 9 8 9 10 10
12 10 8 10 8 7 7 9 12 14 14 14 11 10 11 11 10 9 7 4 4 3 3 4 6 6 6 7 7 6 4 4 5 6 7 8 9 8 7 9 10 10 10
15 15 11 7 7 7 8 8 7 7 10 12 11 10 11 12 11 10 9 5 4 3 3 4 5 7 7 6 6 6 6 6 7 9 11 11 10 9 9 10 10 9 10
17 16 10 6 6 6 7 6 2 2 5 10 11 11 11 12 12 12 10 8 6 4 5 3 5 7 8 7 7 6 5 6 8 10 10 11 10 10 9 9 10 10 10
14 12 8 5 6 6 7 5 4 2 4 8 10 11 11 13 13 12 12 9 7 6 6 7 7 8 8 8 8 8 8 6 8 10 10 10 10 11 10 9 10 9 6
12 8 7 3 4 5 6 5 4 4 6 8 10 11 14 13 13 13 12 11 12 9 8 9 8 8 7 8 9 9 8 8 10 11 11 11 10 10 10 11 10 6 4
13 6 6 3 4 4 5 6 4 4 6 8 11 12 14 13 14 15 15 14 13 12 11 11 11 10 8 9 10 11 10 10 13 13 13 11 10 11 11 10 8 6 6
16 10 8 7 7 6 4 5 5 5 5 8 11 12 14 15 16 16 16 16 16 15 13 13 13 11 10 11 11 12 12 13 14 15 14 13 10 10 11 11 9 8 7
21 14 11 11 10 9 6 6 7 6 6 7 11 12 14 17 18 19 17 18 18 18 16 14 13 12 10 13 14 13 13 16 15 21 17 14 13 13 14 12 10 9 7
23 18 15 15 14 12 9 10 8 7 8 7 10 12 14 17 19 19 18 19 20 20 17 18 17 17 13 11 14 14 15 17 17 23 19 17 16 15 13 12 11 9 7
27 24 20 19 17 15 12 12 12 8 9 9 9 12 15 16 18 19 20 21 22 23 19 26 22 21 16 14 15 16 16 19 21 18 22 17 17 16 14 13 10 10 8
33 31 28 26 21 18 16 15 15 10 10 11 10 10 14 17 19 19 22 23 26 27 24 29 30 23 17 17 18 18 20 21 25 19 17 19 19 16 15 13 12 11 10
35 37 32 31 26 21 21 17 17 13 12 13 11 11 12 18 20 21 23 25 28 30 31 32 27 24 24 25 20 23 24 26 24 25 20 19 19 16 16 14 13 12 12
34 36 35 34 31 26 24 22 20 18 15 13 13 12 11 14 19 24 25 26 28 27 28 31 30 23 29 27 24 23 27 25 23 22 21 19 19 16 17 15 14 13 11
28 31 37 37 34 31 28 27 24 22 18 16 14 14 14 13 15 22 25 26 29 31 32 32 29 24 26 29 27 27 25 24 26 29 22 20 18 19 17 16 15 14 13
32 29 35 37 36 37 33 30 27 25 23 20 19 16 17 15 16 19 27 28 30 30 30 30 31 27 32 30 32 28 26 21 21 22 23 22 20 20 18 17 16 15 14
38 30 38 35 38 41 37 33 30 29 28 26 25 22 20 19 20 21 25 29 30 30 31 28 28 29 17 30 33 30 29 29 26 29 16 21 22 20 18 17 17 17 15
39 37 37 42 43 40 39 35 33 32 31 29 29 27 26 23 23 25 27 29 28 27 31 29 24 28 23 34 33 30 28 30 29 29 19 21 21 20 19 18 19 19 17
30 36 36 45 44 37 40 39 36 34 33 31 32 30 29 27 27 27 28 29 32 31 31 30 25 19 29 28 32 31 33 34 33 29 23 21 20 20 19 18 20 19 18
31 32 37 41 43 38 38 38 38 36 36 34 34 33 30 29 30 30 30 29 31 32 30 26 23 24 23 32 32 33 29 37 30 31 24 21 22 22 20 21 21 21 18
32 31 37 44 46 41 40 39 39 38 37 35 35 34 32 31 32 32 31 29 29 35 30 28 27 27 35 35 35 32 33 34 27 28 24 23 23 22 22 21 23 22 19
31 35 38 42 48 49 38 39 39 39 37 35 34 34 32 32 32 33 30 29 31 32 40 39 29 28 36 41 36 34 33 30 30 30 24 23 24 24 23 22 23 21 19
32 34 38 45 51 46 36 40 39 40 37 34 33 30 30 31 33 33 28 29 32 33 34 27 32 30 42 43 39 36 39 35 30 26 25 24 24 21 20 20 22 21 19
32 36 43 47 47 44 34 37 38 40 37 31 27 28 29 31 34 32 29 29 31 35 35 28 37 29 34 45 40 40 34 28 24 29 26 24 22 19 19 20 20 19 19
33 35 40 42 40 41 32 34 36 39 35 29 29 29 30 33 33 31 31 31 31 37 36 31 35 43 45 46 35 41 37 31 25 21 22 22 22 19 20 21 22 19 17
28 34 37 41 38 37 32 32 36 36 32 30 29 28 30 33 30 31 31 33 33 35 38 36 38 38 41 38 37 39 30 33 29 29 21 18 18 20 21 22 22 19 19

GFSSE_700_spd_099.txt.gz
Wind_Speed
15 14 11 13 11 10 6 4 6 9 10 9 9 9 9 10 11 11 9 7 6 4 6 6 7 7 7 5 7 8 8 7 7 7 6 5 7 9 10 9 9 11 12
10 10 9 12 12 10 7 5 8 11 12 12 11 10 10 11 13 12 10 9 8 6 6 6 7 7 6 5 6 7 7 7 8 7 6 7 10 9 8 9 11 10 10
12 10 8 13 13 11 7 7 8 11 11 11 11 10 10 12 14 13 12 9 7 7 6 6 7 7 7 6 7 7 7 7 7 6 8 9 10 10 10 11 11 10 10
11 11 10 12 13 11 8 7 5 4 6 7 8 9 10 13 14 14 13 10 8 6 7 5 6 8 8 7 8 9 9 8 7 8 9 11 10 10 10 11 12 11 11
13 12 14 13 13 11 9 5 4 2 4 5 7 9 10 11 14 14 14 12 10 8 7 7 6 7 8 9 10 9 8 7 8 9 10 11 10 12 11 11 12 11 9
16 18 15 12 12 9 8 5 4 3 4 6 8 9 11 12 14 14 16 14 12 10 7 7 8 7 7 8 10 11 11 8 8 11 12 12 12 12 11 12 13 9 6
19 19 17 13 11 8 7 5 4 2 4 6 8 10 12 13 14 15 15 14 12 11 8 9 10 8 8 8 10 12 12 10 11 12 13 13 13 13 12 14 10 6 5
20 21 15 13 13 8 8 6 5 3 4 5 8 11 13 15 16 16 15 15 14 13 12 10 11 9 9 10 11 11 13 11 12 13 15 14 13 13 13 13 10 7 6
26 18 15 13 13 11 10 8 7 7 5 5 7 11 13 16 17 17 16 16 16 15 13 12 13 14 13 12 12 11 13 14 15 17 14 14 15 14 14 12 10 8 7
26 24 19 16 15 15 13 11 9 10 7 6 6 10 13 15 17 17 18 18 18 17 15 17 19 17 19 17 14 12 14 16 15 16 15 18 15 15 14 13 11 10 9
28 24 22 20 19 18 16 14 11 13 9 8 7 8 12 13 16 18 19 19 20 19 20 21 18 19 19 16 14 13 14 16 18 16 22 19 17 16 14 13 11 11 10
30 24 25 25 24 21 19 17 15 15 11 10 9 8 10 13 16 17 19 20 22 21 23 24 26 26 26 18 22 17 18 20 19 20 23 23 21 17 15 14 13 12 11
33 35 28 32 30 27 24 21 19 17 16 12 11 10 11 12 16 18 20 21 22 24 25 28 28 24 22 27 23 18 20 20 22 26 21 19 22 18 16 16 14 13 12
35 36 36 32 33 33 29 25 23 20 19 15 13 13 12 10 11 15 20 22 22 23 25 25 26 25 22 32 23 25 25 24 22 22 25 22 19 19 17 17 15 13 13
33 37 37 33 33 35 33 30 27 24 22 18 17 15 13 11 10 10 14 21 23 24 24 25 27 24 25 25 28 29 29 29 26 27 27 22 21 20 18 17 16 15 14
34 37 37 35 32 34 37 33 30 28 26 23 21 19 17 15 12 14 13 16 21 25 26 25 27 28 26 28 23 29 32 30 29 26 26 20 21 20 18 18 17 16 15
43 39 39 36 34 32 37 35 33 31 29 27 25 24 22 20 17 17 18 19 19 23 27 28 29 29 27 29 25 34 35 33 27 25 29 26 24 21 20 20 19 18 17
48 39 42 37 34 34 34 36 34 34 33 30 29 28 26 23 22 22 22 23 21 22 26 28 30 28 24 31 26 30 35 33 28 28 25 20 23 22 21 20 21 19 18
41 35 36 43 37 36 37 36 34 34 34 33 32 31 30 27 26 25 25 26 25 23 26 29 30 32 26 28 24 31 35 32 34 34 29 19 19 22 23 23 22 20 19
30 29 30 38 41 37 39 38 35 36 36 36 35 34 31 29 29 28 28 28 28 28 27 30 31 28 30 26 24 31 36 32 34 36 29 20 22 23 24 22 22 21 19
26 30 34 34 38 41 43 38 32 35 34 39 36 34 30 31 32 30 31 30 30 30 27 27 28 28 26 23 35 31 35 37 35 36 30 22 23 26 25 25 24 23 21
29 30 33 36 36 43 43 39 37 34 35 36 36 33 32 33 31 31 32 30 31 30 27 26 30 28 31 28 27 39 39 41 38 33 30 24 27 28 25 24 24 22 20
32 32 38 39 39 39 42 41 43 36 38 37 36 35 33 33 31 30 31 32 32 30 29 27 26 29 23 26 38 36 44 45 39 35 31 29 29 27 26 25 24 22 21
33 35 36 40 42 40 41 45 43 36 39 38 36 34 30 28 29 29 32 33 34 30 29 26 27 26 31 34 41 33 44 40 39 38 33 31 28 27 25 25 25 22 21
30 32 38 36 40 44 42 45 42 40 37 35 33 31 27 29 29 29 32 35 33 31 29 28 32 33 29 34 45 41 47 38 32 23 24 29 28 27 25 25 23 23 23
43 37 35 36 40 44 43 42 42 36 36 33 31 30 28 28 29 31 33 34 31 31 30 31 33 33 33 42 42 49 41 40 37 30 24 22 22 21 19 22 22 23 22

GFSSE_700_spd_102.txt.gz
Wind_Speed
13 14 14 13 9 11 13 10 9 11 12 12 11 11 11 11 12 12 11 10 9 8 7 7 7 7 9 8 8 7 8 7 8 6 5 5 6 8 9 9 9 10 11
9 16 14 9 8 11 13 11 9 10 13 14 13 12 12 11 13 14 13 11 9 8 7 8 8 9 9 8 9 9 9 8 7 7 5 5 8 8 9 9 10 10 11
14 14 12 8 8 11 14 13 10 11 15 17 16 14 13 13 14 16 14 12 10 8 8 8 8 10 10 10 10 11 9 8 7 7 6 8 9 9 9 11 12 11 11
14 12 10 7 7 11 14 14 10 8 10 13 13 13 13 13 14 16 16 13 10 9 7 7 9 10 11 11 11 10 9 9 9 8 7 9 10 10 11 12 12 11 11
15 15 11 7 8 12 13 13 9 6 7 9 10 11 12 13 15 17 17 15 12 10 9 9 9 10 10 11 11 10 9 8 8 10 11 11 11 11 12 12 12 11 11
16 13 12 13 16 15 12 12 8 5 6 8 9 11 12 13 16 18 17 15 14 11 9 10 9 9 10 10 10 10 9 8 7 10 12 13 12 12 12 13 12 12 9
17 17 16 17 18 14 11 10 8 6 7 8 9 11 13 15 17 18 17 16 15 13 11 10 10 10 10 9 9 9 9 10 8 11 13 13 14 14 13 14 13 10 7
22 21 21 19 18 17 12 10 10 6 6 8 9 12 14 16 17 17 17 17 16 14 13 11 12 12 11 11 9 9 10 11 11 14 15 15 15 15 14 15 12 9 7
20 22 22 21 19 18 14 11 8 6 8 7 9 11 14 16 18 17 17 17 17 17 13 14 13 15 15 14 13 11 11 13 14 16 17 16 16 16 15 15 12 9 7
23 22 23 22 19 18 16 13 11 7 9 8 9 11 13 15 16 18 18 18 18 18 16 17 17 18 18 19 18 13 13 14 16 17 17 17 17 17 15 14 12 10 9
26 24 24 25 23 21 19 17 14 10 8 9 9 10 11 12 14 16 17 18 19 19 20 19 19 19 19 24 23 17 15 15 16 18 19 20 19 17 16 14 14 13 11
29 26 26 24 26 24 23 21 18 15 11 10 9 10 10 11 13 15 18 19 21 21 21 19 21 21 19 20 22 23 17 18 18 17 20 21 21 19 16 14 15 14 12
27 26 26 24 28 29 27 25 23 19 15 12 12 11 11 10 12 15 17 19 20 20 21 22 23 22 22 21 20 20 27 27 21 23 23 21 20 19 17 16 15 15 13
32 29 28 29 33 35 33 31 27 24 20 18 14 14 12 11 9 11 14 17 18 18 20 21 22 24 25 27 22 22 23 25 22 25 27 23 20 23 20 17 16 15 14
34 30 30 34 39 36 37 37 33 29 25 22 18 16 15 12 9 9 9 11 13 16 20 21 21 22 24 25 28 21 20 24 25 25 27 25 17 18 19 18 17 17 15
30 31 39 38 35 43 32 37 37 33 28 26 24 19 18 16 12 11 11 10 11 13 16 22 23 23 24 24 26 27 24 28 28 26 25 24 20 20 20 20 19 18 16
31 31 35 37 35 34 31 28 35 35 32 30 28 24 23 21 17 16 16 15 15 14 15 20 24 26 26 27 28 26 26 24 34 31 30 24 24 24 22 22 20 19 17
41 36 40 41 42 42 38 31 27 33 36 34 31 28 28 26 24 22 21 20 19 19 18 20 22 25 28 29 29 29 28 25 36 35 30 26 24 23 24 23 22 20 19
49 49 45 46 47 43 39 36 29 30 30 32 34 32 30 29 28 26 25 23 21 21 20 22 23 26 28 28 30 28 25 30 38 38 29 27 24 26 26 25 23 22 21
52 54 49 51 46 47 43 40 34 33 32 29 32 34 34 32 31 29 28 26 25 24 22 25 26 26 29 30 30 31 31 33 42 37 30 29 19 23 26 26 25 23 22
30 35 37 41 40 39 35 44 40 37 30 29 31 34 35 34 32 30 30 28 28 27 24 27 26 27 28 27 30 24 31 33 38 35 34 35 26 25 25 27 26 24 24
32 38 40 34 33 35 35 40 44 34 32 30 26 31 34 35 32 30 31 30 30 29 27 28 28 27 28 28 31 29 29 32 39 33 38 36 28 28 27 28 28 26 25
35 35 38 40 34 33 32 38 39 38 36 34 33 30 31 34 34 32 31 33 32 30 29 29 29 28 27 29 30 33 37 41 39 38 36 37 32 29 29 29 27 26 26
43 39 35 33 35 34 37 37 39 40 37 32 31 32 31 36 35 33 32 32 31 32 32 31 30 28 28 30 29 26 35 39 46 43 42 37 35 31 30 29 29 28 27
32 41 45 38 33 34 36 37 35 37 37 34 36 35 34 38 37 33 31 32 31 33 33 34 30 30 30 33 30 31 36 42 44 44 40 35 36 32 29 31 30 28 27
30 32 35 39 40 38 33 35 37 32 32 33 38 39 36 35 33 31 31 31 31 34 34 33 31 30 31 33 33 32 33 41 42 47 42 33 29 30 31 32 31 28 27

GFSSE_700_spd_105.txt.gz
Wind_Speed
16 11 11 8 7 4 9 14 13 12 13 14 14 13 12 12 13 12 11 10 9 9 8 7 7 7 8 8 8 6 6 5 4 4 2 3 4 6 7 8 7 8 9
11 12 13 11 8 4 5 12 15 13 12 14 15 14 13 12 12 12 12 11 9 9 9 8 8 9 11 9 7 6 6 5 5 4 3 4 4 6 6 7 8 9 9
15 14 13 12 8 3 4 11 15 13 13 15 16 15 15 14 12 12 13 11 10 10 9 9 9 9 10 9 9 8 7 7 7 7 7 7 7 8 7 8 10 9 8
15 15 14 12 9 4 4 10 12 12 12 13 15 17 16 14 13 14 14 12 11 10 9 9 9 10 10 10 9 9 8 8 8 8 8 8 9 9 8 10 11 9 9
14 14 13 10 8 6 8 8 9 9 10 11 12 13 14 14 14 15 15 14 12 11 9 9 8 9 10 10 9 9 8 8 8 9 10 9 10 9 10 11 10 10 10
10 15 12 10 8 10 11 7 7 8 10 9 10 12 13 13 14 15 15 16 14 12 10 10 9 10 10 10 10 9 9 8 7 9 10 11 11 10 12 12 11 10 9
12 15 14 14 14 13 10 9 7 9 8 8 9 12 12 13 14 16 16 16 15 14 12 11 12 11 11 10 8 9 9 9 8 9 11 12 12 13 14 12 12 11 8
16 16 16 16 14 11 13 11 9 7 6 7 8 12 13 14 14 16 16 16 16 15 14 13 12 12 12 9 8 8 8 10 10 10 12 13 13 14 14 12 12 11 7
17 18 16 16 13 12 14 11 10 8 7 5 7 10 12 14 14 16 17 17 17 17 15 14 14 13 14 11 9 9 11 11 12 12 13 14 14 15 13 13 13 10 8
18 17 17 17 15 15 15 15 12 10 8 5 6 9 11 13 14 16 17 18 19 16 17 16 17 17 16 13 11 17 15 13 13 14 15 15 15 15 15 14 13 12 10
21 21 21 20 20 17 20 20 16 13 11 8 5 7 10 10 12 14 16 18 19 19 18 17 17 17 16 16 13 14 18 16 13 15 16 18 17 16 17 13 13 13 13
25 25 26 25 23 20 22 23 20 16 14 10 8 6 8 10 11 13 15 17 18 19 19 19 19 19 20 17 16 13 15 21 22 17 19 19 19 20 18 15 15 15 13
23 27 26 27 25 25 25 26 24 21 19 16 11 8 7 10 10 12 14 14 17 17 18 19 22 21 21 19 18 20 17 16 19 28 21 22 23 23 19 16 15 14 14
26 25 26 27 27 28 30 29 29 26 23 21 17 12 10 9 10 10 10 10 13 14 15 18 19 21 21 21 21 24 18 22 23 24 25 21 25 23 21 18 16 16 15
33 28 27 29 29 30 30 33 33 32 29 26 23 18 15 10 10 11 9 8 8 9 10 14 17 20 21 24 25 27 27 22 19 27 25 25 26 22 23 21 18 17 16
37 34 29 28 29 32 35 34 33 37 34 31 29 24 19 16 13 13 12 10 9 8 8 9 14 19 22 24 24 26 23 23 20 21 26 28 27 22 18 18 18 18 18
37 39 35 30 29 33 36 30 28 34 38 37 33 29 24 21 17 16 16 15 13 12 13 13 13 16 23 26 26 27 25 26 26 22 28 29 28 25 22 21 21 20 19
43 38 37 36 34 34 36 35 31 29 31 38 36 33 29 26 24 21 20 19 18 17 18 17 16 17 19 24 25 27 27 29 29 27 28 29 28 25 25 24 22 21 20
53 50 45 40 40 36 37 38 37 33 32 29 34 36 34 31 29 26 24 23 22 21 21 20 19 20 21 23 25 28 29 29 29 29 28 34 31 27 22 24 24 23 21
42 53 56 50 47 43 40 41 38 36 33 33 30 32 36 34 32 30 29 28 27 25 25 23 22 23 23 24 26 28 29 30 31 29 27 37 34 30 26 29 26 25 23
29 37 52 59 57 49 49 45 42 43 42 38 37 29 28 33 36 34 33 31 30 29 26 26 26 26 26 25 25 29 31 33 34 35 37 38 36 32 27 30 28 27 25
35 26 34 44 50 55 46 42 42 39 38 39 36 32 31 29 32 35 36 33 32 30 29 29 28 27 28 26 27 29 29 27 27 34 32 37 37 30 26 25 27 27 25
40 34 33 32 37 46 41 37 40 41 36 40 37 37 32 29 27 31 36 35 31 31 30 29 30 30 30 27 26 29 32 34 31 28 32 38 38 34 31 27 26 27 27
43 41 38 36 36 39 40 40 40 38 38 41 39 36 30 27 25 27 33 32 30 30 30 30 30 31 32 30 27 29 34 36 33 33 38 39 38 41 31 29 28 27 27
43 42 40 40 35 38 39 38 34 35 35 36 35 32 33 28 26 27 32 33 32 31 31 31 30 32 34 32 30 31 33 34 31 29 40 44 42 45 36 31 30 28 29
45 41 40 39 38 36 33 36 32 32 34 34 37 33 35 31 32 34 31 34 34 32 33 31 32 34 35 33 32 34 33 36 31 33 35 39 39 35 42 38 33 32 31

GFSSE_700_spd_108.txt.gz
Wind_Speed
17 18 12 12 7 2 1 6 10 12 12 12 13 14 14 12 10 10 7 7 8 8 7 6 6 6 5 6 7 6 4 4 3 2 0 0 1 4 6 6 6 7 8
16 17 16 14 8 4 1 4 8 11 10 11 13 14 15 13 11 9 8 8 8 8 7 7 6 6 6 7 6 6 5 5 4 3 3 3 4 5 6 7 7 7 8
17 14 16 13 8 5 1 3 6 9 10 11 12 14 13 13 12 10 8 8 9 8 7 7 6 6 7 7 7 7 6 6 5 5 6 6 5 7 7 7 8 10 8
14 16 15 13 9 6 1 4 6 6 8 11 12 12 12 13 12 11 9 9 9 8 7 7 7 8 8 8 7 7 7 7 7 7 7 6 7 9 8 8 10 9 7
8 16 16 13 10 6 4 9 5 3 6 10 11 11 11 11 11 11 10 10 9 9 8 8 8 8 8 8 8 8 7 7 8 9 9 7 9 9 9 10 10 9 8
11 15 17 14 10 4 7 7 4 3 5 8 8 9 9 10 11 10 11 11 11 9 10 9 9 7 7 7 8 8 8 9 8 8 8 9 11 10 11 11 10 9 9
13 14 17 13 9 7 7 6 6 4 5 6 7 7 8 9 10 10 11 13 13 13 12 11 10 8 7 7 8 8 9 9 8 7 8 10 11 11 11 10 11 10 9
15 14 14 12 12 9 8 9 8 4 3 5 6 7 8 8 9 10 11 13 13 14 14 13 11 9 9 7 8 6 6 6 10 8 9 11 11 11 11 11 11 10 8
15 19 16 15 13 11 10 10 9 7 5 5 4 6 7 8 9 11 12 13 14 13 15 14 13 11 9 9 8 7 6 7 11 11 10 11 12 12 12 11 11 10 8
20 19 19 17 15 14 12 10 13 11 9 6 5 5 6 7 8 10 11 14 16 15 14 15 14 12 12 10 10 9 9 9 10 12 11 13 13 13 14 12 13 11 10
24 21 20 21 19 18 17 14 16 14 11 9 7 5 5 6 7 8 10 12 14 15 15 16 15 13 12 10 10 11 9 10 10 11 13 15 14 15 15 14 13 13 12
26 24 22 22 23 22 21 19 19 18 15 12 10 9 5 5 6 8 10 11 13 15 15 17 17 16 15 14 13 13 10 9 13 16 15 17 17 18 17 17 13 16 13
27 27 24 24 25 26 25 24 22 21 19 17 13 12 9 7 6 7 8 10 11 13 14 16 17 17 16 16 16 16 15 17 14 11 11 16 19 21 19 18 16 15 14
28 26 25 28 30 29 27 28 26 25 23 22 18 17 13 10 7 7 7 8 9 9 11 13 15 16 17 17 18 19 18 18 13 14 17 21 24 23 24 21 19 17 16
32 31 28 28 29 30 29 29 30 30 28 26 24 21 20 15 11 10 8 8 7 7 7 8 11 14 16 16 19 21 22 22 22 19 26 22 32 26 25 24 22 20 17
32 38 36 34 31 30 30 31 29 31 32 33 30 26 25 21 17 14 12 10 10 8 8 7 8 12 15 18 20 23 22 23 23 22 27 24 33 28 24 23 25 23 20
32 33 39 42 40 36 36 33 31 30 30 30 35 33 30 27 22 18 17 14 13 12 11 12 12 12 15 17 19 22 24 25 22 25 23 17 30 27 26 21 18 20 20
40 38 40 41 44 42 39 37 34 31 28 25 27 37 34 32 27 24 21 19 17 16 16 16 16 16 16 15 17 20 24 25 24 24 26 27 22 31 27 26 26 20 20
41 40 43 44 44 45 43 40 40 35 31 28 25 29 38 36 32 30 26 24 21 20 20 19 19 18 18 18 19 20 23 25 25 28 28 27 24 32 31 28 26 25 22
38 36 38 45 49 47 45 46 46 42 37 35 30 28 33 38 36 34 32 29 27 25 24 23 22 21 21 21 21 23 24 25 27 29 26 28 25 28 32 31 26 26 23
40 35 34 34 40 49 54 52 49 48 44 40 34 29 33 37 39 38 38 34 32 30 27 26 25 26 24 22 23 26 27 29 30 30 30 28 26 25 30 33 30 27 26
37 42 37 35 33 41 50 58 53 48 48 45 38 34 34 36 37 39 40 38 35 34 31 30 28 28 26 25 26 29 29 28 32 31 34 32 32 33 33 36 36 31 29
37 37 41 36 36 30 42 53 54 52 48 41 38 38 36 38 38 34 34 36 37 37 35 31 30 29 28 26 29 30 31 31 24 31 30 28 39 36 36 39 38 33 30
43 37 41 40 38 33 29 40 51 52 52 44 40 36 36 36 38 35 34 32 32 37 36 32 29 29 29 29 31 33 31 30 33 32 28 33 29 30 37 39 30 29 27
45 45 39 39 39 35 33 32 40 43 46 37 33 35 35 35 37 34 29 27 25 33 34 32 30 31 30 31 31 34 33 30 32 38 38 32 27 29 37 37 36 32 28
39 44 40 39 35 35 32 30 32 37 39 37 37 36 35 35 36 33 29 28 24 28 34 32 32 32 33 34 33 33 33 34 32 33 34 34 26 38 39 39 40 34 29

GFSSE_700_spd_111.txt.gz
Wind_Speed
18 15 15 13 8 2 4 7 8 9 9 8 9 9 10 10 8 6 5 4 5 5 5 4 3 3 4 5 5 6 5 4 3 2 2 2 2 4 7 8 2 7 8
17 16 16 13 9 5 1 5 6 6 7 8 9 10 11 11 8 6 5 4 5 5 5 5 3 3 4 5 6 6 5 4 4 3 2 2 3 5 7 6 9 8 8
17 17 16 14 11 6 3 3 3 2 3 5 8 10 11 10 9 7 6 4 5 5 6 6 4 3 4 5 6 6 5 5 4 4 4 3 4 6 7 7 8 9 8
12 12 15 14 10 7 3 2 1 0 1 3 6 8 10 10 9 7 6 4 6 6 7 5 4 3 5 6 6 5 5 6 6 6 5 5 5 7 8 9 9 9 8
7 13 17 14 11 7 2 4 0 1 1 2 4 6 8 9 8 6 6 5 6 6 7 6 4 4 5 5 6 5 6 7 7 7 6 6 6 8 9 9 10 9 8
6 11 16 15 11 8 2 3 1 2 2 2 3 4 6 6 6 6 6 6 5 7 8 6 5 5 5 5 5 6 6 7 7 8 7 7 8 10 10 11 10 9 9
9 11 15 17 13 9 6 5 4 5 3 2 3 4 5 6 5 6 6 6 6 8 9 7 6 5 6 5 5 6 6 6 7 7 6 7 10 10 10 10 9 10 9
14 16 17 18 16 11 8 5 5 6 4 3 3 3 5 6 5 6 6 7 8 9 10 8 7 7 6 6 5 5 4 3 3 4 5 8 10 10 10 10 9 10 10
19 20 19 21 16 13 10 8 8 9 7 5 3 3 5 6 5 5 7 8 9 10 10 10 9 8 7 6 7 5 3 3 4 5 6 8 10 10 11 12 12 11 10
24 23 25 23 19 15 14 13 12 12 10 8 5 4 5 6 6 6 7 9 10 11 11 10 9 8 7 7 8 7 5 4 4 5 8 9 12 11 13 13 12 12 11
29 27 29 29 21 18 17 16 15 16 13 11 8 6 5 5 6 6 7 8 10 12 12 11 9 9 9 8 8 9 8 7 4 6 6 11 13 14 15 15 14 14 12
32 32 33 32 27 23 21 22 20 19 17 14 11 8 7 7 6 6 8 8 10 12 12 11 11 11 10 10 10 11 11 9 7 9 10 10 13 15 16 17 17 16 14
30 33 33 32 31 29 27 25 23 21 19 18 15 11 10 9 8 7 8 8 8 11 11 11 11 11 10 11 11 12 13 12 13 14 10 10 13 17 19 20 19 19 16
32 33 34 34 34 31 30 28 25 23 21 19 19 16 13 12 11 9 9 8 8 9 10 11 11 11 12 13 14 14 16 16 16 13 14 12 16 20 21 23 22 23 16
31 31 34 35 35 34 35 32 29 27 25 23 22 21 19 17 14 13 12 11 10 9 10 10 10 10 11 12 13 15 17 18 18 18 20 19 21 19 27 25 26 25 19
30 35 34 33 36 37 37 36 33 30 28 28 27 26 24 23 20 17 16 15 13 12 11 11 10 11 11 12 12 13 17 19 20 22 21 22 24 24 32 30 29 28 23
36 39 42 41 40 39 38 36 35 33 30 29 29 29 30 30 27 24 20 19 17 15 14 14 13 12 12 12 12 12 15 19 22 23 23 24 24 27 28 29 27 28 26
40 40 40 42 41 44 44 40 39 35 33 32 30 28 29 33 33 30 26 23 22 19 18 17 16 15 15 15 13 13 16 18 22 25 24 23 27 22 32 36 24 26 21
45 46 47 45 46 42 48 47 45 42 41 37 32 28 27 27 34 35 32 27 25 24 23 21 20 20 19 19 17 17 18 20 21 26 25 25 29 25 24 35 29 26 27
45 47 51 52 51 49 46 48 51 48 47 42 39 36 33 28 28 38 37 34 30 28 28 26 25 24 22 22 21 21 23 23 21 23 24 29 32 25 21 21 32 30 29
45 46 50 51 51 47 53 54 53 52 50 49 45 39 36 31 30 34 39 38 36 34 31 30 29 28 26 25 25 26 26 24 24 23 26 26 33 25 20 26 36 33 31
45 45 47 48 48 48 46 49 54 56 51 51 48 46 40 35 31 32 37 42 41 38 36 35 34 32 30 27 27 27 30 27 26 27 25 27 24 27 27 32 28 38 35
45 45 45 45 47 47 46 44 46 57 59 56 55 48 44 39 36 38 38 39 42 41 40 38 36 34 33 29 28 29 31 30 27 28 25 25 30 24 30 30 29 30 34
32 41 42 45 40 43 45 43 43 46 58 63 57 51 47 44 42 40 39 39 37 41 43 41 40 39 36 32 31 29 32 32 32 34 29 24 24 22 30 31 40 37 35
35 38 43 38 44 42 42 43 40 37 47 57 59 54 48 41 40 39 41 40 38 36 37 36 39 39 38 34 31 31 31 35 33 35 32 26 24 30 26 29 26 35 40
35 37 38 41 46 45 40 39 40 36 32 40 46 49 50 44 42 39 38 40 36 32 31 27 31 37 37 36 32 32 34 34 35 33 32 35 29 27 31 23 28 31 41

GFSSE_700_spd_114.txt.gz
Wind_Speed
15 15 16 12 11 6 2 5 7 7 5 3 4 4 6 8 8 6 4 2 2 3 3 3 2 2 2 3 5 5 5 4 3 3 2 3 4 5 8 10 1 5 5
14 18 20 15 13 8 3 3 5 5 3 1 3 4 6 8 8 6 4 1 3 4 4 3 3 3 3 5 5 5 4 4 4 3 2 3 4 6 7 5 5 7 7
8 17 22 17 14 8 4 1 3 2 2 1 2 4 6 8 8 6 2 1 4 4 4 4 3 3 4 5 5 4 4 4 3 3 3 4 3 5 6 6 7 8 9
3 12 22 18 13 9 5 1 1 2 1 1 2 4 6 7 6 5 2 2 5 5 6 4 3 4 4 4 4 4 4 4 5 5 4 4 5 6 7 7 8 9 8
8 9 16 18 14 10 6 3 1 2 1 1 3 3 5 5 5 4 2 3 5 6 5 4 3 3 3 4 4 4 4 4 5 6 6 6 7 8 8 8 9 9 8
9 8 17 18 15 11 6 3 3 4 2 2 2 3 4 4 4 3 2 3 5 6 4 4 3 3 3 4 4 4 4 5 6 7 7 7 8 9 9 10 11 10 9
12 12 19 20 17 13 9 5 6 6 4 3 2 2 3 3 3 3 3 4 5 6 5 4 4 4 4 4 4 4 5 5 6 5 6 6 9 10 10 11 10 9 9
16 13 19 21 19 16 11 9 8 9 6 5 4 3 3 3 3 4 4 5 6 6 6 6 5 5 5 4 4 4 4 4 4 3 4 6 9 9 11 12 9 10 10
21 21 22 22 22 20 15 13 11 11 10 8 5 4 4 3 4 4 5 6 7 8 7 7 7 6 6 6 5 4 5 4 3 3 5 6 9 10 11 12 11 12 10
25 26 26 27 26 24 19 17 16 15 14 11 9 7 5 4 4 5 6 7 8 8 8 7 7 7 7 7 7 7 7 5 4 5 5 6 9 11 12 13 12 13 12
29 30 29 30 31 30 22 20 21 18 17 15 12 10 8 6 5 6 6 7 9 10 10 9 9 9 8 8 9 9 10 9 7 5 5 6 9 12 12 14 14 15 15
33 32 33 32 34 33 25 22 23 22 20 18 15 12 9 9 7 7 8 8 9 11 11 12 12 11 11 10 10 11 12 12 9 8 8 8 10 13 16 17 17 16 16
33 34 36 35 36 35 32 25 24 26 22 20 18 15 12 12 10 9 9 10 10 10 11 12 12 11 11 11 12 12 15 15 13 14 13 12 13 15 17 18 20 20 20
30 33 36 36 36 36 37 32 30 28 25 21 19 17 16 13 11 11 11 11 11 11 12 12 12 12 13 13 15 15 16 17 17 16 14 11 9 13 16 20 24 24 24
29 37 37 38 36 36 38 37 34 31 28 25 22 21 20 17 15 13 13 14 14 14 13 13 12 13 14 15 15 16 15 18 19 18 18 17 17 17 20 25 25 28 29
31 35 42 40 38 40 39 40 37 35 32 30 27 25 24 21 20 18 17 17 16 16 16 15 14 13 13 14 15 16 16 17 19 20 21 21 23 22 22 28 26 31 30
34 34 41 45 42 41 40 41 43 39 37 35 32 31 31 28 25 24 23 21 20 19 19 18 17 16 14 14 14 14 15 15 17 19 22 25 26 25 24 27 28 41 31
38 38 37 40 46 43 42 41 41 42 42 39 35 35 35 32 30 28 29 27 24 23 22 22 20 18 17 16 15 16 16 17 17 18 22 27 28 26 27 26 28 25 34
35 42 44 41 44 46 43 44 45 42 42 42 38 38 35 33 33 33 34 32 29 27 26 25 24 22 20 19 18 19 19 20 18 20 23 28 29 27 29 30 29 24 23
38 40 43 50 49 48 47 48 49 51 49 43 44 43 38 37 35 33 32 36 35 31 30 30 28 27 26 23 22 23 23 24 22 22 24 26 30 31 26 32 29 25 34
42 41 44 46 53 53 52 54 56 57 57 52 50 48 45 44 40 36 32 32 38 37 34 33 33 31 30 28 28 26 26 27 27 23 25 26 23 26 30 30 31 25 32
45 46 47 49 50 54 56 56 59 59 56 57 55 53 50 49 45 40 35 31 32 41 40 38 37 36 34 32 31 29 29 30 29 26 25 27 25 25 27 27 29 28 25
44 48 51 50 52 52 54 56 57 59 63 62 62 58 56 51 50 44 40 36 34 37 43 41 40 40 38 35 34 32 31 31 33 29 26 29 26 25 27 31 31 28 23
38 42 44 47 48 51 51 54 57 57 59 65 66 62 56 54 54 51 46 40 38 38 40 44 44 41 42 40 37 37 33 33 32 34 30 30 28 26 25 27 23 25 29
37 38 39 41 42 47 55 57 56 55 55 53 57 62 64 58 56 56 51 46 42 41 39 40 44 43 42 42 41 39 37 34 34 35 32 32 31 26 23 24 26 25 30
29 33 38 45 45 46 52 53 55 55 53 46 50 51 54 63 60 59 54 50 46 44 42 41 40 40 39 40 42 42 40 37 35 36 35 33 34 28 23 27 26 30 25

GFSSE_700_spd_117.txt.gz
Wind_Speed
9 9 13 13 10 8 5 3 3 4 5 5 4 4 3 6 7 6 4 2 3 4 3 3 1 1 3 4 4 4 5 3 3 2 2 3 4 5 7 9 1 4 4
11 11 17 15 12 10 6 3 2 1 2 3 4 2 2 4 6 5 3 1 3 3 3 2 1 1 2 3 4 4 4 3 3 2 2 2 3 5 7 6 2 4 6
12 10 18 18 14 12 8 4 1 1 0 2 2 1 2 4 5 4 2 1 3 4 3 2 2 2 2 3 4 3 3 2 4 3 2 3 2 3 6 4 5 5 6
9 14 17 19 16 14 9 5 2 2 1 0 1 0 1 3 3 2 0 2 4 4 3 3 2 3 4 4 4 3 3 4 4 3 2 3 3 5 6 5 6 7 7
9 15 16 19 17 15 11 5 2 3 3 2 1 0 1 1 1 1 1 3 5 5 4 3 2 2 3 4 4 3 3 3 4 6 5 5 5 6 6 6 7 8 7
13 15 17 21 19 17 12 7 3 5 5 4 2 1 1 1 1 2 2 4 6 6 5 4 2 2 2 3 4 3 4 3 5 6 2 4 6 8 8 9 9 8 7
15 16 18 22 22 19 15 9 5 7 7 5 4 2 2 2 2 3 3 5 6 6 6 5 4 3 3 3 4 4 4 4 2 11 5 6 5 9 9 10 10 9 8
18 18 19 24 24 23 19 12 9 10 11 8 6 4 4 3 3 4 5 6 7 7 7 6 4 4 4 4 5 4 5 4 6 4 6 5 8 9 10 11 10 10 9
21 21 19 24 25 24 22 18 14 14 13 11 9 7 6 5 5 5 6 7 8 8 8 7 6 6 6 6 6 6 6 5 4 8 7 5 9 9 10 12 11 11 11
26 26 24 27 27 27 26 21 18 18 16 15 12 10 9 8 7 7 8 9 9 9 9 9 8 8 8 8 8 8 8 6 6 9 7 6 9 10 11 13 12 12 12
29 31 30 29 30 31 29 25 21 21 20 19 16 13 11 10 9 8 8 10 9 10 10 11 10 10 10 11 10 10 11 9 9 10 9 3 8 10 13 13 13 13 13
30 34 34 32 34 34 33 30 24 24 22 21 19 17 13 11 10 9 9 10 10 11 12 13 14 13 13 12 11 11 10 12 9 11 13 7 8 11 14 15 14 15 14
28 33 37 37 37 35 35 34 29 25 25 24 23 20 17 15 14 12 10 10 11 12 12 14 14 14 13 13 13 13 12 14 12 12 17 11 12 11 15 17 18 18 18
30 31 34 38 39 38 35 37 33 28 26 27 25 22 20 18 16 14 13 12 13 13 14 14 15 14 14 15 16 14 14 15 15 15 19 16 13 10 14 15 20 22 23
30 30 30 38 41 43 40 39 37 36 30 29 27 25 23 21 18 16 14 14 15 16 14 14 16 17 16 16 16 14 15 15 16 19 21 17 16 15 14 17 22 25 26
29 29 31 31 39 42 43 42 41 39 36 33 32 29 26 24 22 20 18 16 16 16 17 17 17 17 17 17 16 14 15 15 17 17 21 19 19 22 21 19 22 23 26
26 28 32 31 34 40 40 41 43 42 41 39 36 35 31 29 26 24 22 21 18 18 18 21 20 20 18 17 16 14 13 14 16 14 17 21 21 23 25 25 25 27 26
25 30 36 38 34 39 40 42 43 44 45 44 42 39 36 33 31 30 28 26 24 22 20 22 23 23 21 20 18 17 16 15 15 16 17 20 22 24 25 28 28 26 26
28 35 41 45 41 40 43 42 42 43 44 47 46 45 42 38 36 35 35 33 30 29 25 24 26 26 25 24 22 21 19 18 18 18 18 20 22 24 30 27 31 29 31
33 35 36 40 48 48 45 46 46 42 44 45 47 49 46 44 40 38 40 38 36 35 32 28 29 29 28 27 25 25 23 23 22 21 20 22 24 24 24 29 32 33 32
36 35 35 40 43 48 52 50 49 51 49 49 48 48 47 47 46 44 41 40 38 36 37 34 33 33 32 32 29 29 28 27 26 24 24 24 26 24 26 26 29 33 29
41 39 40 41 44 47 51 55 57 55 54 55 51 48 47 49 50 47 45 42 39 34 35 40 38 36 35 36 35 33 32 31 29 29 28 27 28 26 27 27 29 28 30
41 43 42 42 45 48 52 55 58 61 62 60 63 55 53 52 55 51 47 46 44 40 38 37 42 42 39 39 39 37 34 34 34 33 32 29 29 28 26 28 30 28 28
38 43 45 46 43 45 50 55 59 61 63 59 62 65 59 59 59 54 52 51 50 46 41 38 38 43 43 42 41 40 37 37 35 31 36 34 29 31 27 27 28 24 24
36 42 44 43 44 44 45 50 57 63 63 63 63 64 70 64 62 57 56 57 54 51 45 41 39 39 44 46 44 41 40 38 39 39 39 39 35 32 31 28 26 26 25
34 37 43 44 46 46 46 45 51 61 64 63 61 57 60 66 64 61 61 60 59 54 51 44 42 42 41 42 44 45 43 40 40 42 41 41 41 37 33 30 26 23 26

GFSSE_700_spd_120.txt.gz
Wind_Speed
10 11 13 15 11 10 5 2 3 3 4 4 6 6 6 6 5 5 5 6 7 7 7 5 3 3 3 4 3 2 2 1 1 1 1 1 1 2 4 7 2 1 1
13 11 16 17 14 11 7 3 1 3 2 2 3 5 6 5 4 4 4 5 7 7 6 5 3 2 2 4 3 4 3 2 2 1 1 1 2 2 3 5 3 3 5
15 15 17 20 18 13 11 7 2 1 2 1 2 4 4 4 3 3 4 5 7 6 6 5 3 2 3 4 4 4 2 2 2 2 1 1 2 1 3 3 2 3 6
16 14 18 21 20 15 13 9 5 2 3 2 1 3 3 3 3 3 3 5 6 6 5 4 3 2 3 4 3 3 3 3 3 3 3 3 1 2 2 2 3 5 6
15 14 16 21 21 18 16 12 7 5 4 3 2 2 3 4 4 3 3 5 6 5 5 4 4 4 4 3 3 3 3 3 4 6 5 3 2 2 4 4 5 6 7
16 14 18 21 23 20 18 15 10 8 6 6 4 3 3 3 3 4 4 5 7 7 5 5 5 5 4 4 3 3 3 5 7 8 4 0 1 2 4 4 6 6 6
17 15 16 21 24 23 21 17 13 9 7 7 6 5 5 4 4 4 5 6 7 8 7 6 5 4 4 4 4 3 4 5 8 5 4 3 2 3 4 6 8 7 7
21 19 18 22 25 25 23 20 16 12 10 10 9 7 6 5 5 6 6 7 8 9 8 7 6 5 5 4 4 4 4 4 6 8 6 3 3 4 6 8 7 8 8
22 23 23 22 26 27 25 23 19 16 13 13 11 10 8 7 7 7 8 9 9 10 10 9 7 7 6 6 5 5 5 6 7 10 7 3 5 6 7 8 9 8 8
23 25 24 19 25 28 27 26 22 19 17 16 15 13 11 10 8 9 9 10 11 11 11 11 10 9 8 8 7 6 6 7 8 9 2 5 6 6 9 9 10 10 10
25 28 28 27 26 29 29 28 26 21 19 18 18 16 14 12 10 8 8 9 11 12 12 12 12 11 11 10 9 8 8 9 10 10 9 2 5 6 9 11 12 11 12
25 28 30 32 28 31 32 32 30 26 21 21 19 18 17 14 12 10 10 10 11 12 13 14 14 14 13 11 10 9 9 11 14 13 9 8 6 7 10 12 13 12 13
20 28 31 33 36 32 34 35 33 30 24 23 22 20 20 18 16 14 12 12 11 11 12 14 14 14 13 13 12 11 11 13 14 15 14 11 8 10 11 14 16 15 16
24 27 29 34 34 38 37 35 36 34 31 27 26 23 22 22 20 16 14 14 11 12 13 14 14 14 15 15 15 14 13 14 15 17 14 14 10 11 11 12 14 17 20
17 23 27 30 30 32 41 38 36 38 37 32 29 27 25 24 23 19 17 16 16 16 16 15 16 16 16 17 14 12 13 14 15 14 16 9 16 13 14 12 13 18 24
18 21 26 27 32 30 33 36 39 39 38 38 35 29 28 27 25 22 21 19 17 17 17 18 17 16 18 18 16 14 12 11 12 15 14 14 13 15 15 18 19 18 22
17 13 14 24 29 31 31 36 40 41 40 40 39 35 30 29 28 25 24 23 21 20 18 20 20 19 20 19 17 15 13 12 12 12 12 13 13 12 16 19 21 21 21
18 21 26 29 35 36 36 35 37 41 42 42 42 42 37 32 30 29 29 26 25 24 23 21 21 22 23 22 20 18 17 14 14 13 14 14 14 14 16 15 18 22 23
32 33 35 39 40 41 39 38 40 37 38 42 48 46 45 37 35 34 33 30 30 29 27 25 24 23 25 25 24 22 21 19 17 16 16 16 17 17 17 19 19 20 23
39 36 31 37 39 40 41 42 40 41 43 42 42 46 50 45 40 40 39 36 34 34 33 32 28 27 27 27 28 27 24 22 22 21 19 19 19 20 20 20 22 21 21
42 41 39 37 38 41 42 43 46 45 41 46 43 44 44 48 47 45 45 44 39 38 37 37 34 31 31 30 31 31 29 28 27 25 23 21 22 22 23 22 23 23 23
42 39 40 42 43 43 44 47 49 50 53 50 48 49 44 47 49 50 50 49 45 42 40 41 38 37 36 34 35 33 34 33 31 27 27 25 26 27 25 26 24 23 24
42 40 40 41 44 46 47 49 51 52 52 54 54 55 53 51 50 51 51 50 51 47 44 41 39 36 36 39 38 38 39 37 34 32 31 30 29 30 28 25 26 26 25
43 44 45 44 42 41 47 50 53 56 57 56 57 55 49 57 56 54 52 49 50 53 48 45 40 39 36 35 42 41 40 38 40 39 35 34 31 30 29 28 26 27 27
40 39 40 44 45 43 44 48 52 55 59 61 59 61 63 50 61 57 56 55 51 55 50 52 45 43 41 36 38 42 43 41 40 40 37 36 35 34 33 33 32 28 28
38 40 41 41 42 43 45 45 48 50 52 57 61 61 63 68 66 63 59 58 56 57 56 50 41 44 44 40 39 39 39 42 41 42 41 41 40 39 38 38 35 30 25

GFSSE_700_spd_123.txt.gz
Wind_Speed
7 6 12 14 13 11 7 4 0 2 2 2 2 3 6 5 5 5 7 10 11 11 9 6 4 4 4 4 4 3 0 1 2 2 3 4 4 6 7 9 3 4 2
10 8 12 16 17 14 11 8 3 2 1 1 2 2 5 5 5 5 6 8 11 11 10 8 6 5 4 4 3 2 2 0 1 2 2 2 3 4 7 5 1 3 7
14 12 11 17 21 17 14 10 6 4 3 2 2 3 3 4 4 5 6 8 11 11 10 8 7 6 6 6 6 5 3 2 2 1 1 1 3 3 4 2 4 6 8
14 15 14 16 23 20 17 14 10 7 6 4 5 5 5 4 3 5 6 8 9 10 9 8 7 7 7 8 7 5 3 3 2 2 2 2 2 3 3 3 4 7 8
17 18 18 18 26 24 20 17 13 10 8 7 6 6 6 6 6 5 6 8 10 10 10 8 6 7 7 7 6 4 4 4 5 5 5 2 3 3 4 4 4 6 7
17 17 15 19 27 26 22 20 16 13 11 9 8 8 7 6 6 7 7 9 10 10 10 9 7 8 7 7 5 5 5 5 3 3 4 3 3 4 4 5 6 6 7
19 18 15 19 25 27 24 22 19 16 14 11 10 9 8 7 8 8 8 9 11 11 11 10 9 8 7 6 6 6 5 5 2 4 8 6 3 3 4 5 7 6 7
18 21 20 16 22 27 26 24 22 19 16 13 12 10 9 9 9 9 9 10 11 12 11 10 9 8 8 7 5 5 4 6 4 2 3 3 2 4 5 6 7 8 8
20 21 24 17 20 28 29 27 25 22 18 15 14 12 11 10 9 10 10 10 11 12 12 12 11 10 9 7 6 6 5 5 5 2 4 3 3 5 6 7 7 7 6
27 21 24 24 19 27 31 30 27 25 21 17 16 14 13 12 11 10 10 10 11 12 12 13 12 11 11 9 8 7 5 6 4 4 3 5 4 6 7 8 9 8 7
25 29 24 29 22 23 31 32 30 29 25 20 18 18 16 13 11 10 9 11 12 12 12 13 13 13 12 10 8 8 7 9 7 8 8 3 3 4 7 9 10 9 9
29 33 30 30 32 24 25 34 33 30 28 24 20 19 19 16 13 12 11 11 11 13 13 14 14 14 13 10 10 8 9 11 9 7 7 8 5 5 7 9 10 12 11
24 25 29 28 33 31 28 30 34 32 31 28 25 23 22 20 18 15 13 11 9 11 12 12 12 12 13 12 12 11 11 13 13 10 11 11 9 8 6 8 11 13 13
21 25 27 27 27 30 26 31 32 35 35 34 30 27 25 23 22 20 16 14 12 11 11 12 12 13 13 14 14 13 14 15 14 13 12 11 11 6 9 7 8 12 15
19 21 22 24 27 30 25 30 35 34 37 36 37 34 30 27 24 24 22 19 17 15 12 13 11 13 13 14 15 14 15 16 14 13 10 7 7 9 9 10 11 10 13
21 21 23 29 31 32 31 25 34 38 38 39 41 39 35 31 29 27 26 23 21 19 17 15 15 14 14 14 14 15 14 16 14 12 9 7 6 7 9 10 12 15 17
25 27 28 32 34 32 35 36 32 37 40 38 37 37 37 36 33 31 29 28 25 22 20 18 18 17 18 16 15 15 15 16 15 12 10 7 7 5 7 8 10 12 16
32 32 35 37 38 36 34 37 39 39 42 42 39 38 47 46 37 34 33 31 28 27 24 22 21 18 19 20 18 17 17 16 17 14 12 10 8 7 8 8 10 11 13
36 39 36 37 38 39 35 36 38 41 40 42 43 42 43 42 38 37 34 32 32 31 29 25 24 21 21 21 21 23 20 21 19 18 16 14 12 11 11 11 12 14 15
41 41 42 39 39 42 44 41 39 40 43 42 43 45 43 46 48 41 37 35 35 36 33 30 31 27 23 22 23 25 26 25 23 22 20 20 16 14 14 14 15 16 17
43 43 43 44 46 47 45 44 46 43 44 45 45 46 43 48 47 45 47 41 42 41 38 35 33 32 28 27 27 28 30 28 29 27 25 22 21 19 18 17 16 19 20
44 45 46 47 50 50 48 49 49 49 47 48 48 48 49 49 46 46 58 49 45 45 43 42 39 38 36 32 34 32 32 33 33 30 29 26 23 23 22 21 20 19 20
44 46 49 53 49 48 50 48 50 53 53 50 50 53 53 53 49 49 52 49 55 50 48 47 46 43 42 37 37 38 37 37 34 33 32 29 27 28 27 24 22 20 21
45 49 56 56 57 56 53 50 49 51 55 55 54 55 56 56 56 53 50 50 49 50 52 53 51 49 46 43 40 38 37 35 37 36 35 33 30 30 30 28 26 24 24
48 53 56 57 54 51 49 48 50 51 53 56 56 58 58 59 59 58 54 51 52 51 51 55 55 59 54 46 43 38 34 34 34 37 38 35 33 34 32 29 30 28 27
45 48 50 52 53 50 48 49 50 50 50 52 54 57 59 60 60 61 58 56 54 52 53 53 56 64 63 56 44 41 38 35 31 34 35 35 35 36 35 35 32 33 30

GFSSE_700_spd_126.txt.gz
Wind_Speed
9 5 11 13 11 11 10 8 5 5 5 5 4 3 2 3 4 5 6 7 8 8 7 5 5 5 6 5 5 5 5 4 5 4 5 5 4 5 6 7 2 3 2
8 7 10 13 16 14 13 11 9 7 6 6 6 5 4 4 4 6 7 9 9 10 9 6 5 6 6 5 4 4 5 4 4 4 4 4 5 7 7 6 2 3 5
8 11 12 12 19 20 17 16 13 10 8 8 8 7 6 5 4 5 7 9 11 11 10 8 6 6 6 6 5 5 4 3 3 3 4 4 5 6 7 5 4 5 8
8 11 16 16 17 24 22 19 17 13 11 10 9 8 8 6 5 6 7 10 12 12 12 10 8 6 6 6 7 5 4 4 4 4 4 5 6 5 6 4 5 7 8
15 16 19 19 19 25 26 23 20 17 14 12 10 9 9 8 7 7 8 10 12 13 13 11 9 8 7 8 8 7 6 4 3 2 2 3 4 6 5 5 6 8 8
18 17 17 18 18 26 29 25 23 21 17 15 12 11 11 10 10 9 9 10 12 13 13 11 10 9 9 9 8 8 4 4 4 3 5 5 5 5 6 6 7 8 8
18 18 21 16 17 24 30 27 25 23 19 18 15 13 13 12 11 11 11 11 12 13 13 13 11 11 10 10 10 8 5 4 4 4 6 6 5 6 5 6 8 9 8
20 16 20 19 18 20 29 28 26 24 22 20 17 15 14 13 12 12 12 12 13 14 15 13 12 11 11 11 10 9 6 5 3 6 4 5 8 7 7 7 8 8 8
21 15 18 24 19 19 28 30 28 26 25 22 19 17 16 15 14 13 12 13 14 14 15 15 14 12 11 12 11 10 7 6 5 4 3 3 7 8 7 8 9 9 9
26 25 21 24 25 21 25 32 31 29 28 25 23 20 18 16 15 14 13 13 14 15 16 16 15 14 13 12 12 10 9 8 7 7 8 4 7 4 7 8 9 10 10
32 29 27 25 28 26 25 30 35 32 31 29 26 24 21 19 16 15 14 14 14 14 15 15 16 16 15 13 13 11 10 9 9 8 7 3 3 3 7 10 10 11 11
33 33 29 29 32 31 28 27 33 36 35 32 30 27 24 22 19 18 17 16 15 14 14 15 15 16 16 15 14 13 13 11 8 7 8 4 4 5 6 10 11 12 12
36 36 30 25 26 30 27 28 29 37 37 35 34 31 28 27 25 23 21 19 15 14 14 13 14 14 16 16 16 16 17 13 10 9 9 6 9 8 8 8 9 11 13
28 29 32 27 28 28 28 22 28 33 38 38 37 36 33 32 30 27 24 22 19 16 15 14 13 15 16 17 18 18 19 15 12 12 10 10 11 10 10 9 8 9 11
24 26 30 31 27 31 32 32 30 31 36 39 39 38 38 36 34 32 29 27 24 21 18 16 15 15 16 16 18 19 20 17 13 12 11 12 11 10 9 10 10 8 9
25 27 30 31 29 31 33 32 35 38 39 38 37 39 41 40 37 36 34 32 28 25 23 20 18 17 17 17 18 18 19 18 15 12 11 12 11 10 11 10 10 8 11
24 24 27 30 33 30 31 32 33 37 40 43 40 43 56 43 43 39 38 36 33 30 28 26 24 23 22 20 17 18 19 17 14 12 11 11 10 11 11 9 9 7 10
29 30 33 36 37 39 36 36 35 35 39 41 44 45 49 60 40 41 42 39 38 36 33 30 27 26 24 24 21 18 20 18 16 13 13 12 12 10 10 9 9 10 10
39 38 38 41 42 41 40 37 39 39 37 40 44 45 50 50 40 48 45 43 41 38 37 34 32 29 27 26 24 22 22 22 20 19 16 14 12 12 11 10 10 10 11
44 42 41 43 45 46 45 42 41 44 47 45 42 45 44 47 47 56 61 50 38 39 39 38 35 33 30 27 26 26 25 26 25 24 21 18 17 14 13 13 12 10 12
48 47 46 46 49 50 49 47 46 49 51 54 52 49 46 47 48 53 50 46 71 52 43 40 38 37 35 31 31 31 29 30 30 29 27 23 21 19 17 16 15 14 16
45 47 49 51 50 51 52 51 52 53 57 54 55 54 53 50 50 50 51 42 38 53 47 41 41 40 38 39 37 33 33 32 33 32 32 29 25 22 21 20 18 16 18
45 44 46 48 51 50 51 54 57 60 56 57 57 58 55 55 53 52 51 48 43 48 52 50 47 48 45 44 42 41 39 38 34 34 32 32 31 27 24 25 23 21 20
46 43 43 45 50 54 59 61 64 65 65 62 61 59 59 57 56 57 55 55 50 44 45 47 53 56 50 48 49 46 45 43 39 35 33 32 32 31 29 28 26 25 24
43 48 53 56 58 61 64 66 65 65 62 57 53 57 58 59 59 58 59 58 55 52 50 54 56 58 54 56 57 50 53 48 43 39 34 32 33 33 31 28 28 28 27
41 45 50 54 56 56 57 57 59 57 54 52 47 48 52 56 59 59 60 61 60 57 56 54 53 56 63 59 64 61 60 57 46 40 33 33 31 31 30 28 30 30 30

GFSSE_700_spd_132.txt.gz
Wind_Speed
8 7 8 8 8 7 6 6 6 8 10 13 16 17 14 12 12 13 11 8 7 7 7 7 7 8 8 8 7 6 5 4 4 3 4 5 4 5 7 7 4 3 3
7 6 4 7 9 10 11 11 10 10 11 12 15 17 18 15 13 12 11 10 8 7 8 8 7 7 8 7 7 6 6 6 5 4 5 4 4 5 6 5 1 2 4
6 4 2 5 8 13 15 16 16 14 14 13 14 16 18 17 16 14 13 11 11 9 8 8 7 7 7 7 6 6 7 7 6 5 5 4 5 5 6 4 1 2 6
5 5 5 7 9 12 15 19 20 19 17 15 15 15 17 18 18 16 14 13 11 10 10 10 9 8 8 8 7 8 7 7 6 6 6 5 5 5 6 5 4 5 7
8 10 12 12 13 14 17 20 22 22 21 18 17 17 15 16 17 17 15 14 13 12 12 12 10 9 9 8 9 8 8 8 7 6 6 6 7 8 7 6 6 7 9
9 11 13 15 16 15 15 19 24 24 22 20 18 18 17 16 17 17 16 16 15 14 14 13 12 11 10 10 9 9 9 8 8 8 7 8 8 9 8 8 9 10 9
11 12 15 15 13 13 15 16 22 25 22 21 20 19 18 17 17 17 17 17 17 17 16 15 14 13 11 11 9 9 9 9 9 8 9 10 9 9 9 10 11 12 12
12 13 14 14 15 16 18 17 18 24 24 22 21 20 19 19 18 17 18 18 18 17 17 17 16 15 14 12 10 10 10 10 9 8 8 7 10 10 11 10 11 12 12
15 15 16 19 21 21 19 17 18 22 25 23 23 22 21 21 20 19 18 18 18 18 17 18 17 16 16 13 11 11 11 11 10 8 8 7 8 9 12 12 12 13 12
20 21 21 23 25 26 25 18 17 20 26 27 26 24 24 24 23 22 21 19 18 18 18 19 18 18 18 16 13 12 12 13 13 11 10 10 9 9 12 13 14 14 14
22 24 26 28 28 28 26 25 25 21 24 29 29 28 27 27 27 26 24 22 20 19 18 19 19 19 19 18 16 15 15 15 15 13 11 12 10 8 11 14 14 14 13
27 28 29 31 32 30 29 27 26 25 26 29 32 31 30 30 29 29 27 26 24 22 21 20 21 21 21 21 20 18 16 17 16 15 14 13 11 11 12 13 15 15 14
30 30 31 29 26 26 25 24 22 22 26 28 32 34 33 32 32 31 30 28 27 25 25 23 23 22 22 22 22 21 19 19 18 18 17 15 14 12 14 14 15 15 16
25 24 24 25 25 23 20 23 24 22 22 23 27 35 38 37 35 33 32 31 31 29 29 28 26 25 25 24 24 25 23 21 21 19 19 18 17 15 16 16 15 15 16
20 19 17 17 19 21 22 23 24 24 22 23 24 27 35 39 38 38 36 35 34 33 33 32 30 29 28 26 25 26 27 24 23 22 21 20 20 19 19 18 17 15 14
19 19 19 21 23 24 25 24 25 25 25 24 25 27 28 31 38 40 39 38 39 37 37 37 35 33 31 30 28 28 28 28 25 24 23 22 21 20 19 18 18 17 15
24 24 24 26 29 30 30 31 30 28 29 29 29 28 29 30 35 36 40 43 44 41 44 45 40 37 35 34 32 31 31 29 29 26 26 24 22 21 21 18 18 18 16
29 30 30 31 32 36 37 35 35 36 34 34 33 32 31 31 33 35 41 51 44 45 47 49 45 40 39 38 37 35 34 32 31 30 27 26 24 21 20 19 18 17 16
34 34 34 36 37 40 42 40 40 40 38 39 39 40 38 36 34 36 37 40 49 59 55 30 40 48 41 41 42 40 38 37 34 32 29 28 27 24 22 19 19 18 17
39 40 41 41 43 44 44 46 45 43 42 43 45 46 46 44 43 42 42 42 43 44 49 52 36 54 52 44 44 44 41 40 39 37 33 31 29 28 25 23 22 20 19
39 39 40 41 43 44 45 45 48 49 46 47 48 49 50 50 50 48 47 47 48 46 46 42 45 51 67 55 45 45 44 42 44 42 39 35 33 31 30 28 26 24 22
39 39 40 41 42 43 45 45 47 49 52 52 52 53 52 52 52 52 51 49 50 51 50 45 42 42 52 65 54 49 45 46 47 45 43 40 37 36 34 33 31 28 25
36 38 39 39 39 41 43 44 45 47 49 50 50 51 53 53 54 56 58 57 54 55 54 47 43 45 49 53 64 57 47 51 44 45 45 42 40 39 37 36 35 33 29
36 37 38 40 42 44 46 48 50 52 53 53 56 57 58 61 61 60 62 63 62 60 57 51 46 43 44 51 49 56 56 43 42 45 43 43 41 42 41 40 39 37 35
40 44 45 46 45 46 49 51 54 55 57 60 62 62 62 62 62 61 63 62 60 57 56 53 51 47 48 51 51 55 66 50 43 50 41 43 44 42 42 43 43 41 38
38 40 44 48 49 51 53 54 53 54 55 56 57 57 58 57 60 58 56 58 56 53 53 53 53 49 49 48 47 41 62 57 64 42 46 41 48 48 48 42 42 43 42